GFSNE_700_spd_000.txt.gz
Wind_Speed
45 44 46 45 46 45 44 45 50 50 49 46 45 39 37 34 34 35 37 36 34 36 36 35 34 34 35 38 39 42 46 49 53 55 49 47 45 41
47 49 50 49 46 45 45 48 49 50 56 46 45 41 39 38 34 35 37 31 36 37 38 35 35 35 38 40 41 44 48 51 55 52 47 45 40 39
46 48 49 47 47 46 43 47 53 48 55 50 43 42 42 38 36 37 39 35 39 39 39 35 35 36 40 40 42 45 48 53 55 48 45 41 38 38
44 46 48 49 51 54 54 52 54 55 55 50 43 43 41 37 37 42 40 34 42 39 39 35 35 40 39 39 41 45 49 53 51 44 42 39 36 34
46 46 46 46 49 50 52 52 49 53 54 50 48 40 47 39 41 43 43 35 36 43 39 37 36 33 40 40 42 45 48 53 45 43 39 37 34 32
51 49 48 47 46 44 46 47 45 47 47 55 50 48 51 55 47 43 48 41 42 39 41 39 38 39 38 39 43 45 52 47 42 39 37 35 32 29
50 51 50 49 48 45 46 48 51 55 52 50 55 54 51 54 54 42 48 43 45 38 40 40 34 37 38 40 42 47 49 41 39 36 35 33 31 28
45 47 48 48 48 48 47 47 50 52 54 54 57 58 54 55 49 40 49 42 49 38 36 37 35 36 40 41 42 50 42 38 35 33 32 30 28 27
42 42 45 47 47 49 48 49 52 57 53 53 52 58 57 51 52 46 49 45 44 35 35 35 39 38 39 39 44 45 38 35 32 30 29 28 26 27
41 41 42 43 44 47 51 49 53 53 51 52 51 47 53 55 56 39 39 38 38 37 35 32 40 37 36 40 45 39 35 32 30 28 28 26 27 27
43 43 43 45 43 44 45 55 54 51 51 50 49 49 49 50 52 43 41 38 37 36 36 36 33 34 37 40 38 35 32 29 27 27 25 26 27 28
41 42 43 43 43 44 44 42 53 47 48 48 53 57 47 38 44 47 36 39 41 36 31 35 28 31 37 36 32 32 29 28 25 24 26 27 29 30
41 42 44 46 44 43 40 40 43 36 38 36 44 50 33 37 42 38 51 46 35 30 28 28 28 32 35 30 28 28 27 24 24 24 26 28 29 30
40 41 44 43 41 42 40 36 37 38 38 39 41 38 35 36 40 29 37 35 20 23 26 25 28 31 25 24 24 24 22 22 23 24 27 28 28 26
38 40 39 37 37 39 38 36 35 37 38 32 34 33 35 34 30 25 29 24 21 21 19 21 26 23 22 21 20 20 20 21 24 26 28 25 22 20
35 36 37 35 35 32 35 30 30 33 33 31 35 31 33 26 16 15 18 25 18 15 16 21 19 19 19 20 16 18 22 23 24 24 22 18 18 17
37 37 36 36 35 33 28 28 31 27 30 33 32 27 31 19 17 11 15 15 12 13 17 17 15 16 17 15 17 21 22 22 22 19 19 15 16 18
36 36 35 36 36 37 31 29 26 22 24 29 30 33 28 26 20 19 15 10 10 13 15 13 14 14 12 18 22 23 22 20 19 19 21 18 17 20
33 32 35 36 34 34 34 30 25 23 25 29 19 29 21 25 17 14 9 8 11 11 9 11 11 11 14 18 22 26 18 21 21 20 22 22 18 20
29 30 33 33 32 31 31 24 20 22 24 20 23 17 17 18 9 6 5 7 7 7 8 8 10 14 18 21 17 20 28 24 23 21 23 22 22 22
26 26 29 32 32 32 28 21 18 19 17 10 10 10 14 11 7 2 4 4 5 5 6 8 13 17 20 19 18 18 22 31 31 28 23 20 15 13
23 24 26 27 31 32 26 20 15 11 16 9 5 11 13 10 4 1 2 4 3 4 7 11 16 17 17 19 22 25 23 22 25 26 28 24 21 15
20 22 24 25 28 30 26 21 14 7 6 11 16 17 14 7 5 4 5 4 5 6 10 13 14 15 19 20 23 23 25 24 20 15 15 15 12 7

GFSNE_700_spd_003.txt.gz
Wind_Speed
44 45 45 45 45 46 48 49 51 56 55 48 44 42 41 40 35 30 33 37 32 31 32 36 36 38 35 36 37 37 37 38 39 43 47 49 50 52
47 48 48 48 48 49 50 54 52 52 57 53 50 52 51 49 43 36 35 38 35 37 37 36 36 39 39 41 37 40 39 39 42 45 48 49 52 50
48 48 49 47 48 48 48 49 52 52 57 61 59 58 56 54 47 41 34 34 35 38 45 39 39 39 38 42 39 42 42 40 43 45 48 49 52 46
49 51 51 51 50 50 49 50 53 54 54 58 57 54 55 50 46 44 40 35 36 38 46 50 47 42 40 39 40 41 39 43 43 45 48 51 47 43
46 48 49 48 48 48 49 50 49 49 52 54 57 54 52 54 50 49 44 43 44 47 46 50 51 42 40 41 42 41 42 43 42 45 47 51 44 40
47 47 46 44 45 46 47 48 49 50 50 52 54 54 55 57 56 54 50 50 48 49 52 47 46 49 42 42 40 45 39 40 43 44 49 44 40 37
44 45 43 43 44 44 44 45 47 50 51 51 53 53 52 58 64 54 46 53 56 55 55 56 41 52 51 41 46 39 35 41 40 43 45 40 37 35
42 43 42 41 41 42 44 43 45 47 50 52 52 54 54 60 48 43 53 66 60 52 54 52 49 51 37 40 38 40 37 36 39 42 39 37 34 32
40 40 40 40 40 41 42 44 46 47 49 51 55 54 53 50 52 53 60 55 46 54 49 47 47 44 41 37 41 35 30 35 39 36 35 32 31 29
41 39 40 40 40 42 42 43 43 46 49 49 51 54 53 52 48 54 56 48 53 51 49 46 41 37 33 34 35 28 30 36 35 33 30 29 29 26
41 39 40 41 40 41 43 44 45 45 44 47 46 49 46 49 50 51 56 55 52 56 48 42 36 35 38 32 29 26 32 32 31 27 27 26 25 24
43 39 39 40 40 39 41 44 46 42 42 42 42 43 39 40 45 39 46 51 44 42 39 37 39 31 27 27 22 28 29 28 26 24 24 23 23 24
45 43 40 38 39 39 37 39 41 43 43 40 39 37 36 37 31 35 45 42 35 35 38 33 39 25 23 20 23 27 25 24 22 21 21 22 24 27
42 41 38 37 38 38 36 34 39 41 41 39 39 37 35 38 38 37 38 38 34 37 34 37 29 20 18 20 22 23 21 21 18 20 21 24 27 27
37 36 33 35 37 35 33 32 33 36 38 37 38 37 35 36 34 29 29 29 26 24 25 20 17 14 17 18 19 20 18 18 20 21 22 25 26 25
33 30 29 30 32 33 32 31 30 32 32 35 39 38 33 30 20 21 17 13 19 19 18 14 12 14 15 14 15 18 16 19 21 23 21 22 22 20
32 29 28 29 30 31 30 31 28 33 30 30 35 31 32 26 20 16 11 12 11 13 11 10 9 11 11 11 13 15 18 19 20 22 18 17 19 17
30 29 29 27 29 31 31 32 29 31 26 26 26 26 26 24 16 12 11 11 13 9 7 5 8 9 10 11 14 18 19 20 20 18 19 16 17 23
27 28 28 25 26 28 30 34 32 27 23 21 21 17 16 12 8 7 11 13 7 7 5 7 7 7 9 15 16 19 17 16 16 17 21 22 18 21
25 27 26 23 23 27 28 33 30 25 19 14 11 13 6 7 14 15 14 9 8 5 5 4 4 7 11 14 15 19 16 16 19 19 20 21 20 19
24 26 22 21 21 24 26 31 28 26 17 10 6 5 19 21 20 14 10 9 7 4 2 2 5 10 12 11 11 13 22 25 23 20 15 12 13 15
23 25 21 18 20 22 25 29 27 25 17 7 12 21 22 20 15 11 10 8 6 4 1 5 9 10 10 12 14 15 16 18 20 17 11 5 6 6
23 23 19 16 18 20 24 27 26 24 13 11 23 26 21 16 15 13 11 9 7 5 6 8 10 12 13 14 14 12 9 12 13 15 10 6 3 3

GFSNE_700_spd_006.txt.gz
Wind_Speed
51 52 52 53 53 53 54 54 55 61 62 61 61 57 54 50 47 49 50 48 49 47 44 37 41 44 42 40 41 43 43 45 43 42 40 39 41 42
51 51 52 54 55 56 56 56 55 56 64 61 61 57 54 52 49 49 52 56 52 48 50 46 44 46 45 43 44 44 44 46 42 40 43 41 41 42
48 48 48 49 50 52 53 55 57 56 59 64 60 57 56 56 55 52 52 52 52 49 50 53 49 49 50 48 46 47 48 47 45 49 42 44 45 45
49 50 50 50 49 47 47 50 52 53 55 60 60 61 59 57 55 54 52 51 51 52 50 51 50 46 50 55 48 54 53 50 45 43 44 40 46 42
47 49 50 52 51 50 49 49 49 49 49 52 57 57 59 58 59 59 56 55 53 52 44 46 52 47 51 56 50 53 61 51 48 51 40 47 43 43
46 49 51 52 54 54 53 52 51 50 50 47 48 52 54 54 57 59 59 56 53 57 56 48 58 56 52 57 53 50 58 59 52 51 45 47 40 40
46 49 51 51 52 52 53 54 53 53 53 51 52 49 45 49 53 55 54 52 54 52 48 46 50 52 63 61 48 51 60 56 51 50 43 40 38 36
50 50 48 48 49 50 50 50 49 52 53 52 52 53 55 57 56 54 55 54 55 51 52 51 43 46 48 57 56 45 51 54 50 49 41 37 35 37
50 51 50 47 47 48 49 49 48 48 48 50 52 52 54 54 52 50 51 52 53 47 50 52 48 47 44 53 55 54 53 48 45 40 33 32 34 36
51 49 50 53 47 46 48 49 47 46 44 46 47 50 49 51 50 49 48 53 49 48 51 46 36 41 43 43 45 43 48 43 39 32 27 31 33 33
49 49 51 51 48 44 47 49 49 44 42 43 44 44 45 44 44 45 46 48 46 49 50 43 40 43 44 43 37 39 38 35 29 27 27 30 30 29
45 44 46 47 45 43 43 46 47 42 42 41 39 41 42 42 42 40 43 43 50 50 37 43 39 31 41 41 34 35 30 26 24 25 26 27 27 25
46 47 47 42 40 39 38 39 41 39 39 39 41 42 42 42 38 38 42 42 50 44 34 33 33 33 33 32 31 29 28 23 22 24 24 24 24 22
44 46 44 39 36 35 35 34 36 36 37 38 36 39 39 37 32 34 40 39 40 38 37 37 34 26 31 30 28 26 22 20 20 23 23 22 22 21
41 42 41 36 33 33 31 30 32 34 36 35 34 36 35 35 37 35 34 33 32 30 26 21 18 21 25 23 21 18 18 19 21 20 20 20 20 21
40 39 38 34 32 29 27 28 30 32 34 34 35 35 32 32 31 29 25 18 12 9 10 13 14 20 21 19 16 16 19 18 17 18 17 18 19 21
41 38 37 32 31 27 25 27 29 30 33 32 32 28 28 26 21 17 11 1 2 5 6 12 16 17 14 12 16 16 17 15 14 15 16 16 18 20
38 37 36 33 31 27 26 28 29 31 34 31 28 25 26 21 17 11 10 4 6 8 12 12 13 9 12 13 13 12 12 13 15 16 15 15 17 22
36 36 35 32 29 26 26 29 31 33 34 31 28 25 23 18 13 13 14 10 11 11 9 8 10 10 9 9 8 11 13 14 14 15 17 17 17 23
33 32 32 29 27 26 26 29 30 35 32 29 25 22 19 12 13 17 15 14 11 7 6 7 5 5 5 7 11 12 11 12 14 16 19 21 21 23
30 28 29 26 26 25 27 28 31 35 31 26 19 13 7 17 19 19 15 11 10 7 6 5 2 3 6 7 9 12 14 14 15 16 17 16 19 21
28 28 26 24 25 26 26 28 32 32 27 19 7 9 16 19 19 17 17 14 10 7 4 0 2 2 4 7 9 12 16 15 6 5 7 10 11 12
27 26 24 23 24 25 25 27 32 29 21 8 9 15 17 19 21 17 15 13 9 5 4 3 3 4 6 6 6 4 5 10 10 6 8 10 12 10

GFSNE_700_spd_009.txt.gz
Wind_Speed
55 54 53 53 53 56 58 59 55 60 63 62 62 60 58 56 54 50 49 52 54 53 54 51 52 53 55 54 50 50 50 50 49 49 50 48 47 47
54 55 54 53 52 51 52 54 56 55 60 60 61 60 59 57 56 56 55 50 49 51 52 57 58 55 63 54 51 51 51 52 50 53 54 52 50 49
52 53 53 52 53 53 54 54 54 55 58 60 59 59 60 60 60 58 54 54 52 51 50 54 57 56 48 53 54 56 53 53 52 55 53 50 51 51
49 50 50 52 53 54 55 55 55 54 55 58 56 56 57 56 55 57 54 52 52 51 50 50 50 51 52 55 62 59 57 57 56 56 52 55 57 61
49 49 50 51 52 54 56 57 59 60 60 57 59 60 56 55 56 54 51 49 51 51 48 48 50 50 55 57 56 55 57 60 59 61 55 60 63 56
48 49 49 51 53 54 57 58 60 62 62 61 59 60 59 57 55 54 54 48 42 46 48 48 43 45 46 53 52 56 54 60 58 58 57 56 55 59
49 49 50 50 52 54 57 58 59 60 61 61 60 59 59 58 55 54 53 54 57 58 55 54 46 42 43 43 49 46 50 59 61 56 63 58 57 56
52 51 51 51 52 52 54 56 56 56 59 59 59 58 57 54 53 54 54 55 57 52 55 54 44 43 37 36 41 47 41 41 47 55 56 46 54 58
54 53 53 53 54 55 55 55 56 55 54 56 57 56 56 51 51 52 50 51 54 52 52 55 51 45 41 44 41 43 41 35 40 42 51 52 53 51
52 51 51 52 52 53 53 55 55 49 48 51 52 52 52 50 48 49 49 50 51 51 48 51 49 47 44 46 37 33 33 34 36 44 49 50 44 45
50 48 47 48 49 47 50 52 49 44 42 45 46 47 45 45 45 46 46 46 51 51 50 48 45 45 38 39 42 39 39 40 38 40 43 44 38 37
48 49 47 46 45 44 46 45 43 41 41 39 39 40 40 40 41 40 41 45 49 52 47 43 47 42 47 41 36 38 40 40 37 34 33 34 35 32
48 50 48 46 45 42 40 39 39 39 37 38 40 41 37 39 38 39 36 38 39 40 40 44 50 41 46 41 36 36 33 35 34 32 34 34 30 23
47 47 46 45 44 40 38 34 33 33 34 38 42 38 38 37 36 35 36 36 37 40 42 44 48 47 44 37 39 30 31 32 30 32 32 26 19 23
44 45 44 44 41 39 35 32 31 31 33 37 37 41 36 35 34 35 34 36 40 40 43 41 38 34 31 30 24 18 26 30 30 30 22 17 21 21
45 45 43 41 38 38 33 30 29 29 32 37 41 38 38 36 33 31 32 33 28 23 20 20 21 22 20 17 16 20 27 29 23 12 15 20 18 18
47 45 43 41 39 37 31 29 28 28 32 36 39 39 39 34 29 28 28 21 9 1 4 5 8 11 17 19 22 23 15 9 13 16 15 15 17 20
46 44 41 40 39 36 33 31 29 30 33 36 40 39 35 28 24 22 20 12 6 3 5 8 8 12 17 14 9 8 10 12 12 13 15 17 20 22
42 40 38 37 36 34 33 33 33 32 35 40 40 36 30 24 19 15 13 9 6 7 7 11 11 10 7 8 7 9 10 11 13 15 17 18 21 22
38 37 34 34 34 33 32 32 32 32 39 39 36 29 22 15 9 7 10 10 9 10 12 12 8 7 7 8 8 9 10 11 13 14 15 16 19 21
36 33 32 32 31 31 31 30 31 36 39 35 24 16 7 3 10 14 14 14 17 14 10 9 8 6 5 5 6 7 9 10 11 12 14 16 17 20
33 31 29 29 29 29 29 29 31 37 34 21 11 7 10 14 17 20 21 16 13 11 8 4 3 3 3 4 5 6 7 8 9 9 11 14 18 18
30 28 27 27 27 27 28 29 36 33 22 9 9 11 18 22 20 16 15 13 10 6 4 3 2 2 3 3 4 3 4 6 9 11 13 15 14 11

GFSNE_700_spd_012.txt.gz
Wind_Speed
53 53 54 54 54 54 52 52 54 59 61 58 61 58 57 55 55 56 58 56 53 51 52 51 52 55 53 62 61 63 49 50 49 49 48 47 49 51
50 50 51 51 51 51 52 52 52 54 57 54 53 55 56 58 58 58 57 56 57 55 54 53 53 52 51 54 56 61 61 57 54 49 48 50 51 54
50 51 50 51 51 51 51 52 53 54 53 55 54 53 53 54 54 56 57 57 56 54 50 48 53 53 52 50 48 48 51 58 60 64 50 51 53 56
54 55 54 54 54 54 54 55 56 56 57 62 58 58 59 58 58 59 57 55 54 54 46 41 43 49 50 50 50 50 50 49 45 51 56 55 54 55
56 55 54 54 55 55 55 55 57 59 60 61 64 62 62 62 63 61 60 58 54 53 50 45 43 44 45 46 46 47 48 48 55 44 54 52 56 55
56 54 53 53 53 55 56 56 58 61 62 64 65 64 64 63 65 65 64 58 57 52 51 48 45 47 43 39 42 41 39 45 47 55 58 57 55 55
56 55 54 52 53 54 56 57 57 59 60 62 63 64 62 62 63 62 61 60 56 52 51 47 46 45 45 44 44 43 43 43 46 44 49 54 54 52
55 54 54 53 53 53 52 52 53 53 55 54 55 56 57 55 55 55 54 54 59 49 48 48 44 45 43 37 36 38 43 41 39 44 42 48 52 56
55 55 54 53 52 53 52 51 49 47 45 46 50 49 50 46 46 48 45 47 49 45 43 47 42 43 42 40 36 39 40 44 44 38 37 41 36 47
55 52 52 51 49 49 49 48 47 45 42 43 43 37 37 36 44 44 46 48 45 42 40 46 41 42 41 40 36 34 37 38 38 35 36 35 35 43
50 47 46 46 47 46 46 48 47 44 40 39 38 38 36 36 37 42 44 44 45 43 36 42 40 44 42 39 34 33 31 31 35 30 29 32 27 37
46 46 45 46 45 43 46 45 46 43 40 36 32 32 33 32 35 39 41 43 41 40 34 38 39 37 38 35 31 29 32 29 26 35 31 28 32 45
47 46 47 47 44 44 44 44 42 42 38 36 34 33 33 35 37 38 38 35 36 38 35 37 37 35 34 32 29 32 33 32 30 30 28 31 37 39
45 46 46 48 48 45 43 41 39 37 36 35 34 34 35 35 37 38 32 31 34 36 37 39 41 39 35 35 36 36 36 33 28 26 33 34 34 31
44 41 46 48 47 43 39 38 37 35 33 33 34 35 37 39 41 36 32 31 31 31 32 34 37 39 36 35 33 29 27 28 29 29 30 30 29 29
45 47 48 46 42 39 37 34 32 31 31 32 34 37 39 41 40 35 33 28 25 24 25 24 25 27 27 27 23 22 22 23 27 27 25 27 30 26
47 49 47 43 39 35 33 32 30 29 30 32 36 40 43 41 36 30 25 20 17 16 12 7 4 7 12 13 11 14 14 17 21 23 26 25 17 18
47 47 43 38 36 34 33 32 30 31 32 35 39 43 42 38 29 19 15 12 9 6 2 1 4 4 5 7 14 18 21 23 22 18 16 18 22 24
43 42 38 34 32 31 32 32 33 32 35 40 41 37 33 25 18 12 6 4 2 3 4 4 8 15 18 15 16 18 17 15 16 19 20 21 21 21
40 38 34 30 29 30 31 32 32 33 40 39 33 26 22 18 10 4 5 8 10 10 13 16 18 15 15 14 12 14 15 15 14 15 15 17 18 18
36 33 29 27 27 29 30 31 32 39 37 29 21 18 15 10 9 12 16 19 20 18 13 12 11 10 8 8 7 7 7 9 11 12 14 15 15 15
33 28 25 25 27 28 29 30 36 35 25 18 14 16 15 19 22 24 23 18 13 10 8 6 5 5 5 4 4 6 7 9 11 12 13 14 15 17
29 25 24 24 26 28 29 33 35 22 16 13 16 19 22 19 16 14 12 10 8 7 7 5 4 4 3 3 3 5 7 8 9 11 12 11 11 12

GFSNE_700_spd_015.txt.gz
Wind_Speed
47 48 49 50 51 53 53 53 51 52 59 53 56 53 53 52 51 51 50 49 50 51 51 51 52 54 55 56 55 55 66 47 62 67 63 63 51 48
50 52 53 54 55 55 54 53 52 51 55 57 57 58 57 54 52 52 51 50 49 49 52 51 51 49 51 53 56 57 59 58 52 52 60 60 53 50
57 58 58 57 56 55 55 55 54 53 55 61 58 60 61 60 59 56 55 55 54 54 53 52 51 49 50 50 51 53 55 57 51 48 52 59 61 57
61 61 59 58 57 56 55 56 58 58 59 61 62 62 63 63 63 63 60 58 59 57 57 56 51 47 46 46 48 47 50 53 51 49 56 44 53 56
60 59 57 56 55 54 53 54 56 57 59 58 61 62 63 63 63 62 61 60 60 61 61 59 57 48 44 44 44 46 47 47 49 49 50 46 46 52
57 55 53 52 53 53 53 54 55 56 56 56 56 58 59 59 58 59 60 57 59 60 62 59 56 49 44 43 45 47 45 48 43 45 46 47 44 45
55 53 52 51 50 48 48 48 48 48 45 44 49 50 51 51 50 48 51 51 51 51 53 52 50 43 42 41 42 46 47 46 47 45 47 43 47 48
55 53 52 49 45 42 41 42 41 37 39 41 42 48 48 45 43 41 35 38 40 37 40 43 35 34 33 36 36 37 43 43 48 47 46 45 45 42
53 51 47 42 41 42 43 43 42 42 43 45 46 45 46 44 41 36 37 44 41 41 40 42 31 32 30 30 29 31 35 41 43 44 44 45 47 46
48 44 41 41 42 43 43 42 43 42 41 40 42 44 44 39 38 40 41 42 42 37 39 44 31 30 26 28 27 30 33 37 39 41 45 44 49 43
43 41 39 42 43 42 35 48 47 41 39 38 38 38 35 32 31 33 33 36 40 36 39 41 30 29 25 21 21 24 28 32 33 35 41 40 41 42
43 42 40 41 43 37 45 50 47 41 40 38 35 31 29 27 27 29 33 38 39 41 35 33 28 29 26 22 22 22 23 27 27 29 30 34 33 32
45 44 43 42 39 47 45 42 41 40 39 38 35 32 29 27 29 30 34 36 39 36 29 29 29 27 28 26 21 17 17 22 18 23 24 26 27 27
46 46 45 44 45 44 41 37 35 36 37 35 34 31 31 31 30 34 36 36 32 31 28 25 28 27 29 28 23 19 17 18 14 14 16 15 14 17
46 47 47 46 42 38 34 32 31 32 33 33 33 33 33 35 36 40 38 33 30 25 24 22 24 24 26 25 22 20 19 20 18 15 15 16 23 31
47 49 47 42 36 32 29 27 28 30 32 34 35 36 38 39 40 36 33 26 21 17 17 16 17 20 19 19 19 19 20 20 18 18 17 20 27 25
49 46 42 37 32 27 25 26 27 28 30 33 37 40 39 36 31 27 21 16 13 10 7 6 4 6 8 11 15 19 21 19 19 27 26 24 23 22
44 41 38 34 30 27 27 27 27 29 33 37 37 33 31 28 24 16 12 9 7 4 1 3 4 7 5 7 15 18 20 20 25 25 23 22 24 28
39 37 34 30 27 26 28 29 30 33 36 32 27 26 25 20 17 13 8 6 5 8 10 10 11 14 12 17 24 25 19 22 22 23 23 24 26 25
35 33 30 27 26 27 28 29 33 35 29 25 23 20 18 18 14 11 10 13 16 17 19 22 22 21 24 21 22 25 27 25 24 23 21 21 22 23
31 29 26 24 25 27 28 32 35 27 23 20 18 15 16 14 14 15 17 20 22 22 19 16 15 14 15 15 14 16 17 19 22 19 18 18 18 19
29 26 23 24 25 27 30 35 24 20 18 16 15 15 18 18 19 18 17 13 11 10 9 9 10 11 12 11 13 13 14 15 16 16 18 18 17 18
26 24 23 24 26 27 33 24 18 16 16 14 18 15 13 12 11 11 10 10 9 8 8 8 8 8 7 7 8 9 10 10 11 12 14 15 16 17

GFSNE_700_spd_018.txt.gz
Wind_Speed
49 52 54 56 58 59 59 59 60 65 69 66 66 62 61 60 58 61 62 59 57 54 53 55 56 55 55 55 57 56 55 55 58 59 59 64 42 49
54 57 58 58 58 58 57 57 56 57 62 65 64 64 63 61 62 64 64 63 60 59 56 54 54 54 52 51 53 54 60 56 50 56 55 57 58 53
57 58 58 57 57 56 55 55 55 55 58 62 61 60 60 60 61 61 63 64 65 62 55 56 57 56 55 52 51 51 53 57 55 50 53 55 56 58
59 59 57 56 56 55 54 54 54 54 51 56 58 58 57 56 57 55 57 58 60 62 60 57 56 56 56 54 53 51 51 52 53 54 48 49 51 53
60 60 59 57 56 54 53 54 53 51 50 46 52 46 49 50 52 50 48 53 52 52 53 54 55 55 54 53 52 51 50 49 51 54 51 48 47 47
61 59 55 53 53 52 51 49 46 46 46 41 41 43 43 45 47 52 54 52 51 42 40 41 44 46 47 50 51 49 49 49 51 53 51 47 47 44
58 56 53 51 49 46 44 43 44 43 39 37 40 44 50 50 50 50 40 45 47 40 37 34 29 31 31 36 40 43 46 48 50 54 54 49 47 44
58 55 51 48 45 42 42 42 40 37 37 41 48 54 52 50 48 47 48 46 47 36 38 38 33 35 36 34 37 39 43 47 50 53 53 52 46 44
54 52 48 44 43 43 44 43 37 35 37 47 56 54 50 46 45 45 42 36 39 35 35 40 34 38 32 31 34 39 44 48 50 51 53 50 53 50
51 48 46 44 43 44 45 44 40 43 48 50 49 46 43 42 40 41 41 40 36 33 31 39 35 36 36 32 30 36 41 45 48 50 50 51 50 49
48 45 43 44 44 44 39 40 48 52 48 43 41 38 38 37 36 37 35 37 39 37 36 40 39 39 32 24 23 25 33 38 42 45 47 47 48 47
47 46 46 46 45 42 41 47 52 48 45 39 36 35 35 33 33 34 36 40 42 42 39 38 37 31 27 20 17 16 21 28 37 41 43 45 45 47
50 50 48 46 44 47 45 44 45 44 40 39 39 37 35 34 33 32 34 37 41 42 37 35 35 28 23 21 12 12 17 20 27 33 36 36 36 36
50 49 47 47 47 45 42 39 38 36 36 38 38 37 36 35 35 35 35 36 37 40 34 31 30 25 22 20 15 12 16 15 20 23 22 24 29 27
47 46 46 47 44 40 35 32 31 32 34 36 38 38 39 40 39 36 34 31 30 26 25 24 22 21 21 19 14 12 14 16 14 18 17 20 22 22
44 47 45 43 39 35 31 27 28 31 34 37 39 40 38 35 31 29 28 24 20 15 15 15 14 16 17 16 14 14 21 25 23 15 14 17 17 18
46 44 42 39 36 31 27 27 28 30 34 37 36 34 30 29 26 23 19 13 12 10 9 8 8 8 9 12 13 17 26 27 24 11 12 16 25 28
42 41 39 36 32 29 28 28 28 34 35 31 28 26 27 25 21 15 13 12 10 7 5 4 1 3 1 7 14 21 27 29 24 17 18 20 23 23
38 37 34 32 29 27 29 30 36 33 27 24 23 23 21 18 18 16 13 11 9 9 11 9 10 11 10 12 17 20 25 25 23 23 21 18 17 21
34 32 30 28 27 28 29 35 33 24 21 20 20 19 18 18 16 14 12 12 13 16 19 21 21 18 18 20 25 26 21 21 20 19 17 17 21 29
31 29 26 25 27 28 33 32 22 19 19 18 17 18 19 18 18 17 17 18 19 18 17 16 17 20 21 20 23 28 24 19 17 17 23 23 25 32
29 25 24 25 27 32 32 20 16 15 16 19 20 19 17 16 15 14 13 11 10 9 9 9 9 10 13 16 17 18 22 25 26 25 23 19 19 19
26 24 24 25 29 31 20 16 15 16 18 17 18 19 18 16 14 12 11 9 8 7 7 7 8 9 11 12 13 14 15 17 17 18 20 20 21 22

GFSNE_700_spd_021.txt.gz
Wind_Speed
48 51 53 55 57 58 59 59 61 70 74 70 68 62 60 59 55 54 53 53 54 59 62 63 63 62 58 58 60 62 66 68 70 64 56 57 56 69
51 53 55 57 59 59 60 59 58 57 66 67 65 62 59 58 54 51 52 52 51 52 53 55 60 62 58 59 59 58 58 61 63 61 55 50 48 47
53 56 57 59 60 59 58 57 57 54 56 62 59 57 53 52 53 50 48 48 49 47 47 48 49 52 51 56 58 57 56 57 56 57 54 51 45 44
56 58 59 59 59 58 57 56 55 53 51 50 52 49 51 52 50 49 50 48 49 49 49 50 51 49 48 48 53 56 54 56 57 55 52 49 46 45
57 58 59 59 58 56 54 53 51 48 44 44 50 50 49 45 47 49 52 55 53 49 48 48 46 45 42 42 45 49 50 53 55 54 52 49 46 44
57 58 58 57 55 53 51 49 46 44 45 45 47 46 43 44 47 56 58 52 51 49 48 47 45 45 41 37 36 37 43 48 51 53 52 49 47 44
57 57 56 55 53 50 46 46 44 44 47 46 45 46 44 49 57 60 56 53 51 49 46 41 39 38 36 39 36 36 35 41 47 49 49 48 48 48
57 57 55 53 50 47 46 46 41 41 43 44 47 49 53 57 58 54 51 51 54 43 42 42 37 35 33 37 38 38 38 38 42 46 47 47 47 47
55 54 53 50 48 49 49 48 45 40 38 45 49 57 61 58 51 48 47 48 48 43 42 41 34 34 31 32 30 33 35 37 41 43 44 45 46 47
52 52 51 51 50 48 45 47 45 45 48 52 52 56 52 45 42 44 46 47 46 41 39 44 39 39 39 37 34 32 32 32 38 43 44 45 45 47
51 51 51 51 50 46 44 47 54 53 47 44 43 42 38 37 38 41 42 44 46 44 39 44 43 43 43 38 28 24 25 28 34 41 46 48 48 50
52 51 50 49 47 42 45 52 52 47 45 42 38 36 37 37 37 38 41 44 46 51 43 46 44 42 43 30 18 13 17 22 28 34 42 46 48 49
54 53 51 49 43 45 46 45 43 41 39 38 39 39 39 39 39 40 41 42 46 49 43 42 41 38 33 30 18 12 16 18 19 26 30 33 36 41
52 52 50 44 48 47 43 40 35 34 36 38 40 41 43 43 41 38 35 34 35 38 35 30 32 28 27 25 17 7 9 10 12 14 22 26 29 32
49 48 46 47 45 41 36 33 32 34 36 39 43 43 39 36 34 32 30 28 27 25 23 21 22 21 21 19 12 6 9 11 14 8 9 15 23 27
48 46 44 42 39 35 31 29 31 33 38 42 39 35 32 31 29 27 27 25 22 17 16 16 15 16 15 14 9 7 13 17 17 7 4 15 19 16
45 43 42 39 35 30 29 30 32 36 38 32 31 30 28 27 25 22 20 21 20 19 16 14 11 10 10 10 7 11 18 21 18 6 8 12 14 18
42 41 39 34 32 30 31 33 35 33 28 27 26 26 26 24 22 19 19 19 17 16 15 13 8 7 5 4 9 14 21 20 19 8 2 7 16 19
38 37 33 31 29 30 32 36 33 25 23 23 23 22 20 19 19 19 18 16 13 14 16 16 15 12 6 9 13 16 19 19 16 11 9 15 22 25
34 33 30 28 29 31 35 31 23 21 21 21 22 22 23 23 20 19 19 19 20 20 21 21 18 15 12 14 17 20 20 18 13 13 13 15 17 23
33 28 26 27 29 34 29 22 20 21 23 24 25 26 23 21 19 18 18 18 18 18 18 19 21 20 15 19 25 25 23 15 12 11 12 12 18 28
30 26 26 27 32 29 23 20 19 20 21 23 22 22 21 20 19 18 16 14 12 12 12 13 14 19 19 16 20 22 21 17 12 12 13 15 23 31
27 26 26 30 29 23 20 19 18 21 21 22 22 22 20 18 15 14 13 13 13 10 8 8 9 10 12 16 14 15 17 17 19 18 17 22 22 24

GFSNE_700_spd_024.txt.gz
Wind_Speed
45 46 48 49 50 52 53 55 59 68 70 65 67 63 61 58 55 50 48 46 45 44 45 45 47 50 48 49 48 49 58 63 63 65 67 72 74 72
47 49 50 51 53 53 54 55 56 58 68 65 65 62 59 56 52 49 48 48 47 44 42 42 42 42 45 47 47 48 51 55 59 61 61 65 67 69
49 51 53 53 54 53 54 55 56 56 59 64 61 58 55 55 53 51 51 50 48 44 42 44 48 49 45 45 46 46 44 44 50 56 58 57 59 60
51 53 53 53 53 53 54 55 55 54 54 57 56 55 54 52 53 53 51 48 48 49 51 54 49 45 44 43 43 42 40 39 44 45 48 51 55 54
52 53 53 53 53 53 54 54 53 53 51 51 56 54 54 52 50 51 52 50 50 54 58 48 43 44 45 46 46 45 40 35 37 37 44 46 51 49
52 52 52 52 52 53 53 52 51 50 52 52 53 55 55 52 49 46 57 55 58 58 49 43 43 40 40 40 41 40 36 35 38 39 36 40 49 48
52 51 51 51 51 50 47 48 48 50 46 47 53 55 51 53 60 59 64 62 56 50 45 41 40 35 34 33 33 35 36 38 39 40 42 44 48 45
52 52 52 52 50 50 49 48 43 41 45 47 53 54 60 62 62 56 52 52 52 44 45 38 38 35 32 31 29 29 29 34 41 45 43 42 44 44
52 53 53 52 50 50 50 49 45 42 43 49 58 55 53 48 49 47 45 46 47 45 44 44 38 36 33 32 32 33 33 35 37 42 43 40 40 43
52 52 52 52 51 49 48 47 46 48 51 50 48 46 42 40 39 42 44 46 47 44 42 47 42 42 39 37 36 36 35 34 34 38 40 40 41 42
53 53 53 52 51 46 41 43 50 53 46 43 39 35 35 37 38 42 43 45 47 46 42 45 46 46 43 40 36 29 19 22 26 30 35 37 40 44
54 53 52 51 50 41 42 48 49 47 43 38 36 36 36 38 37 37 39 43 44 47 38 41 41 40 42 34 26 21 18 24 25 28 30 33 36 45
53 53 51 49 42 43 43 42 41 39 37 38 39 40 40 37 35 32 32 35 40 42 35 34 36 34 32 34 26 16 11 14 21 22 23 23 24 36
50 50 49 43 43 41 38 35 33 34 36 38 41 39 36 34 33 31 30 29 30 32 29 25 29 28 27 26 20 10 8 7 10 10 9 6 10 19
47 45 42 41 40 36 31 30 31 33 37 39 36 35 34 33 31 28 26 26 25 23 24 24 24 23 22 21 15 8 1 4 6 7 4 3 7 11
45 43 40 38 33 30 28 27 31 35 33 31 33 31 31 29 27 26 26 24 24 23 22 22 19 16 13 13 9 2 4 4 8 11 6 9 9 11
42 41 38 34 29 28 28 30 33 27 27 28 29 30 29 27 25 24 23 23 24 23 23 19 15 11 9 7 3 3 6 9 16 16 8 9 11 12
40 38 34 30 29 30 33 34 26 25 26 28 29 28 27 25 23 21 21 22 23 23 23 22 18 12 6 4 8 9 11 14 18 18 14 8 10 15
36 33 30 28 29 33 33 28 27 26 27 28 27 28 27 26 24 24 24 24 24 23 26 20 21 16 13 13 16 18 18 16 18 13 11 13 13 12
32 30 28 28 31 33 28 27 26 27 27 26 25 25 26 25 24 23 22 22 23 23 23 22 22 18 16 18 23 26 22 18 14 13 15 20 27 29
31 27 27 28 32 28 26 25 25 25 24 24 25 25 25 22 20 20 19 19 18 18 21 21 21 22 17 20 24 25 21 17 14 13 14 18 25 28
29 26 27 30 28 26 25 24 23 21 23 25 27 26 22 19 18 16 16 17 16 15 16 19 18 22 19 19 22 21 18 17 15 13 11 11 17 23
27 26 28 28 26 25 23 22 21 23 25 27 25 20 20 18 17 14 13 13 13 14 13 12 14 15 14 15 15 15 15 17 18 20 21 18 19 20

GFSNE_700_spd_027.txt.gz
Wind_Speed
46 47 48 48 50 51 52 53 57 65 65 58 59 57 60 60 59 55 52 51 49 47 46 47 46 46 47 51 52 54 48 50 50 52 53 60 70 75
47 49 49 50 52 52 52 52 52 56 64 58 58 60 60 60 56 53 51 49 47 46 46 46 44 39 46 44 45 46 44 45 46 47 48 52 51 59
48 50 51 52 53 52 51 51 52 54 59 60 59 60 60 59 58 54 51 51 49 46 46 40 40 43 43 49 49 43 44 45 44 43 43 42 44 46
50 52 52 52 51 51 51 52 53 54 55 59 60 61 59 58 57 55 55 52 49 46 47 48 45 48 52 48 45 45 46 47 46 46 45 48 46 44
51 52 51 52 52 52 52 54 54 55 55 56 59 57 56 56 58 57 58 56 56 57 56 55 52 47 41 40 41 44 47 46 45 45 46 44 40 37
50 51 52 52 53 53 54 53 53 53 52 51 50 52 55 56 57 63 62 57 54 46 43 41 38 35 35 37 39 40 40 40 41 40 41 39 38 40
51 51 52 53 52 52 51 52 51 50 48 46 48 50 55 60 61 57 53 48 44 41 40 35 37 32 30 31 32 33 35 35 35 33 35 40 42 40
53 54 54 54 53 51 49 48 44 40 43 43 50 58 61 57 50 44 46 46 47 40 41 39 38 33 32 31 30 30 32 34 36 36 36 35 42 43
56 57 56 54 52 51 50 48 44 39 39 45 53 54 51 42 43 45 46 47 47 45 45 44 39 38 36 35 34 34 35 36 38 39 39 41 46 47
56 56 54 52 51 50 48 43 42 47 50 48 45 42 39 40 41 45 48 50 49 43 39 45 39 39 37 34 31 32 33 36 39 41 43 45 43 45
55 52 50 49 49 45 38 43 49 47 41 38 34 34 36 39 42 43 41 42 42 40 30 38 37 38 35 32 26 24 25 26 26 30 38 41 43 43
51 48 47 46 43 38 41 45 44 40 37 35 35 36 38 34 30 31 34 37 38 40 30 38 37 34 36 25 19 15 18 19 26 32 33 38 38 38
47 47 46 41 38 41 38 37 36 35 35 37 39 35 29 29 30 31 31 32 35 36 33 34 35 33 32 32 16 14 17 17 22 26 27 26 29 32
46 45 42 40 40 37 34 32 31 33 37 37 30 30 32 32 31 31 29 28 28 31 31 28 31 30 28 21 14 9 12 13 15 14 18 19 20 25
44 42 39 39 36 32 29 30 32 34 30 29 30 32 32 30 28 27 27 26 23 21 23 26 28 25 19 15 12 10 8 8 8 7 7 9 11 20
42 39 37 35 30 27 26 29 28 26 28 29 31 30 29 27 25 25 26 24 23 20 21 23 22 18 12 10 9 9 9 9 9 13 11 10 10 17
40 37 35 30 27 26 28 24 23 24 26 28 28 27 27 28 27 25 24 24 24 27 26 20 19 13 8 7 11 13 14 16 19 17 10 11 13 19
36 35 31 28 28 31 27 24 24 26 26 26 25 26 28 29 27 25 23 23 26 27 26 23 17 14 14 15 17 19 20 21 20 17 14 16 19 20
33 30 27 27 29 26 25 25 27 26 25 25 27 29 30 26 24 23 24 24 23 26 24 21 18 18 19 23 24 26 22 20 16 15 15 15 20 18
29 26 26 26 26 24 24 26 25 24 24 27 30 30 27 23 20 20 22 23 22 22 21 21 18 19 21 25 27 27 19 18 15 22 24 23 23 18
26 24 25 25 23 23 24 24 24 25 27 29 27 23 21 21 19 19 18 19 20 18 19 21 20 21 22 24 25 23 22 20 18 18 24 26 28 25
25 24 24 22 22 23 24 23 24 25 27 27 22 21 19 20 22 19 17 16 16 17 16 18 21 20 18 19 20 22 21 19 19 18 20 20 26 38
24 24 21 21 22 24 23 24 25 26 28 27 23 17 17 18 18 19 18 18 16 13 12 12 14 15 14 15 16 18 18 16 15 16 22 20 22 24

GFSNE_700_spd_030.txt.gz
Wind_Speed
45 47 49 51 53 54 56 58 62 71 72 66 62 58 58 58 59 58 59 58 56 55 54 53 52 53 53 54 46 48 47 47 53 58 60 55 66 66
47 49 51 53 55 55 56 57 58 61 68 62 59 59 61 62 59 59 57 55 55 52 50 50 49 49 40 43 39 40 45 52 48 50 47 48 49 51
49 51 53 55 55 55 55 57 58 58 62 63 60 60 61 62 61 58 55 55 54 49 49 48 48 45 42 45 46 49 54 50 49 45 45 49 46 48
52 53 53 54 54 55 57 58 58 57 59 62 62 61 61 60 60 59 57 53 55 56 54 48 45 44 46 48 50 52 52 50 48 48 50 50 48 48
52 52 53 55 57 58 59 59 59 58 56 56 59 58 58 55 54 54 54 57 59 53 45 42 39 38 39 40 40 40 39 38 43 46 47 50 48 49
51 52 54 57 59 60 60 58 56 55 53 52 52 54 50 51 50 57 62 58 51 42 40 35 36 37 36 36 37 39 42 44 45 47 48 48 47 46
52 54 57 59 59 58 56 55 53 50 47 46 47 49 51 57 59 57 53 49 44 41 43 42 42 38 35 34 35 37 39 40 41 41 40 39 36 35
56 58 60 60 58 55 52 50 47 40 40 42 46 52 60 57 48 44 46 48 52 44 45 44 41 38 37 37 36 37 36 38 40 41 40 38 40 39
59 60 59 55 51 51 50 48 41 41 40 49 55 52 48 41 43 46 47 50 49 43 42 41 37 40 36 34 33 35 36 39 40 42 44 44 43 43
58 56 53 50 49 49 47 43 44 47 43 42 42 39 39 41 43 44 44 45 45 41 40 44 36 36 35 33 28 28 32 35 36 40 45 46 47 47
55 50 48 48 47 42 40 46 45 39 36 34 34 36 38 35 34 38 38 41 42 36 30 38 36 39 37 30 22 21 25 30 33 35 36 34 36 44
51 48 46 44 41 40 42 42 39 36 37 37 37 30 29 30 30 31 35 38 39 38 30 37 37 38 43 30 24 17 22 24 28 31 35 36 39 44
49 47 44 40 39 38 36 34 35 37 39 38 31 31 29 29 30 30 31 34 36 36 31 34 38 37 38 36 19 15 20 20 23 25 27 29 29 36
47 45 41 39 37 34 32 32 34 37 33 31 30 29 30 29 29 30 29 29 29 32 32 32 37 36 34 27 20 12 14 15 17 15 17 18 22 23
44 40 37 36 33 30 29 32 33 29 29 29 29 29 28 29 30 30 28 28 26 26 28 30 31 29 24 20 15 13 13 10 13 17 13 14 17 15
41 37 35 33 29 28 29 27 25 27 29 28 28 29 30 30 30 30 30 29 27 27 25 26 25 19 13 12 12 15 17 17 17 21 25 18 2 8
38 34 32 28 26 26 23 22 24 24 25 27 29 32 32 31 26 26 27 28 28 30 27 20 16 13 12 13 15 18 20 23 24 24 20 13 8 7
34 33 29 27 27 26 24 23 23 23 26 29 31 33 31 29 26 23 24 26 26 26 24 19 14 13 15 17 18 25 28 27 23 21 14 12 6 15
32 29 27 27 26 24 24 23 24 25 29 30 32 28 28 26 26 22 20 24 22 22 20 17 15 16 18 21 25 26 22 21 19 16 13 14 15 19
28 26 25 25 23 23 22 22 24 26 28 29 28 25 24 25 24 21 20 21 21 18 16 15 16 19 21 22 24 27 22 19 23 24 19 19 20 21
25 24 25 23 22 21 21 23 26 27 28 29 25 22 20 22 21 21 21 20 17 14 13 14 16 19 18 16 19 23 23 21 21 24 19 21 25 27
24 23 22 21 21 21 22 23 25 26 26 25 23 21 19 19 19 20 21 19 14 12 11 13 15 14 12 14 17 18 18 22 26 29 32 31 29 32
23 21 20 20 20 23 24 24 26 26 23 22 22 21 19 18 17 17 17 15 15 11 6 7 11 11 11 11 11 13 13 16 20 24 33 33 31 30

GFSNE_700_spd_033.txt.gz
Wind_Speed
43 45 47 49 52 54 55 58 62 71 75 73 72 70 69 68 67 66 64 63 61 60 59 59 60 60 60 61 63 63 63 60 57 49 45 50 57 55
46 47 49 52 54 55 56 57 59 63 73 71 71 71 70 69 67 64 61 58 56 54 54 53 49 53 54 57 59 57 54 43 44 44 46 50 58 54
47 50 53 55 56 57 58 60 62 64 69 72 70 68 68 67 65 60 57 56 53 50 46 48 50 51 50 48 47 48 53 50 50 47 53 55 55 56
51 54 55 56 57 58 61 63 64 63 64 66 66 62 59 56 57 55 53 50 50 56 58 53 48 42 39 40 39 41 42 49 58 61 63 61 60 55
53 55 56 58 60 62 64 64 64 63 60 59 61 57 55 51 52 52 55 58 63 56 47 44 41 40 40 40 41 41 41 40 40 41 42 42 44 44
54 55 57 59 62 63 64 62 59 57 56 55 55 53 51 53 56 59 61 53 48 44 43 41 42 43 42 42 42 41 43 45 46 47 46 47 50 50
56 56 58 61 61 59 57 55 54 54 52 50 51 52 56 56 53 49 50 50 48 45 45 39 41 39 37 37 37 39 41 43 45 45 45 46 46 46
56 58 60 60 57 54 52 51 47 44 44 46 51 53 49 45 44 46 48 48 48 40 44 36 38 37 35 35 33 33 35 38 41 44 45 45 43 43
57 59 59 55 53 51 50 47 45 42 43 45 47 41 43 43 45 43 42 45 45 42 46 42 37 36 32 31 30 30 33 36 39 41 44 47 47 46
57 56 54 52 50 48 46 45 45 39 36 36 37 39 39 37 37 42 45 47 44 39 40 45 37 35 33 30 29 29 31 34 38 40 41 44 46 48
56 53 51 50 48 44 43 45 41 34 33 34 33 30 31 35 37 40 40 44 44 39 35 42 39 41 39 32 26 24 25 32 36 38 39 42 44 44
53 50 48 46 42 40 41 40 37 36 36 33 28 28 30 31 30 32 37 41 43 43 36 43 43 43 48 35 28 20 21 24 32 34 34 35 36 38
50 47 45 42 39 37 36 34 35 38 34 31 31 31 29 28 30 33 35 37 40 41 38 40 43 41 40 36 19 18 21 19 22 25 28 28 31 34
47 45 42 40 37 34 32 33 35 33 32 32 31 29 31 32 33 34 32 31 33 37 36 35 39 37 32 27 23 16 19 19 23 20 21 24 27 29
45 40 39 37 34 30 30 32 32 32 32 30 30 32 35 35 33 31 26 28 30 30 31 31 30 26 24 24 24 24 27 22 20 20 17 19 23 26
43 39 37 34 31 30 29 27 27 29 29 30 33 34 34 30 28 29 27 28 28 26 25 25 23 21 20 22 25 26 26 30 29 26 23 21 22 13
40 37 34 30 28 27 23 23 24 25 27 31 33 34 30 28 26 27 25 26 28 30 24 17 19 21 23 24 23 28 31 31 31 30 25 12 15 7
36 35 32 30 29 25 24 22 22 25 28 30 32 32 28 26 27 25 24 24 25 25 21 20 17 16 18 23 29 31 31 30 29 22 12 18 15 18
35 32 29 28 24 23 23 23 24 26 29 30 32 29 24 23 24 24 23 21 19 20 18 17 17 19 23 29 31 32 32 32 31 20 15 17 20 23
31 28 27 24 23 23 23 24 25 26 28 29 27 25 23 23 23 22 23 22 18 16 13 14 16 20 27 28 29 32 35 32 30 24 17 16 19 21
27 25 24 23 23 23 24 24 26 28 27 25 25 24 24 23 21 21 20 19 16 12 11 12 15 19 19 19 21 25 31 35 33 25 17 16 18 20
25 23 22 23 23 24 24 26 26 23 21 22 24 25 24 23 21 21 19 15 14 11 9 11 12 15 15 17 20 21 25 30 34 34 29 19 18 21
23 21 22 22 24 25 26 25 22 21 23 24 24 24 23 21 19 18 16 14 13 10 7 7 8 10 13 15 16 18 22 23 27 30 35 32 21 16

GFSNE_700_spd_036.txt.gz
Wind_Speed
42 44 45 47 49 51 54 56 61 70 74 73 73 72 70 71 69 66 63 61 59 58 55 53 54 57 59 59 59 60 63 65 66 68 68 66 59 53
44 46 47 49 52 53 55 57 58 62 73 72 72 71 69 67 62 61 58 55 51 49 48 47 45 45 44 42 51 56 59 62 65 67 65 62 45 46
45 48 49 52 54 55 56 59 62 64 69 72 69 65 63 61 59 56 53 51 50 48 45 46 47 46 44 44 44 44 43 41 42 40 44 45 48 49
47 50 52 54 55 57 60 62 64 64 64 68 65 60 56 53 52 51 48 47 47 44 42 41 42 43 43 43 43 42 41 42 39 38 38 41 48 50
50 52 54 56 58 60 62 64 63 61 60 59 59 53 52 51 48 46 46 44 45 45 44 42 40 40 41 41 42 44 44 45 47 46 44 41 40 39
51 53 55 57 59 61 62 61 59 57 54 52 51 52 52 47 45 47 48 45 44 40 35 36 37 37 37 38 40 41 42 43 44 46 46 47 45 43
52 54 56 58 60 59 57 56 54 51 48 48 50 51 45 42 43 45 45 41 38 44 41 35 38 35 34 34 35 36 38 39 40 41 42 45 46 46
55 55 57 58 56 54 51 49 46 43 43 45 46 43 42 43 41 39 43 45 44 40 44 39 38 37 34 34 32 32 33 34 36 39 41 43 45 47
55 56 57 54 52 50 48 46 43 39 37 40 42 39 41 37 39 40 39 41 43 43 45 44 39 38 37 35 33 34 32 34 37 40 41 43 45 47
54 54 53 51 48 48 46 45 42 37 34 36 36 35 34 36 37 39 41 44 44 42 43 47 43 42 40 34 28 27 29 33 35 37 38 38 40 44
54 52 49 48 47 44 43 44 39 34 32 32 28 29 31 33 36 39 40 45 46 41 36 47 45 47 42 27 21 19 25 29 31 32 33 32 33 36
53 48 46 45 42 40 40 40 37 35 32 26 27 27 29 30 32 37 41 42 42 42 37 46 46 45 40 27 20 19 21 21 24 26 28 27 26 30
49 46 44 42 39 38 36 35 35 34 30 30 29 29 31 33 33 33 33 35 36 37 37 41 42 37 32 31 22 24 26 25 25 24 26 27 28 30
47 44 42 40 38 35 32 32 32 30 31 30 30 31 33 33 30 29 29 29 28 34 36 35 33 30 31 32 33 29 29 28 26 22 22 25 28 32
44 40 39 38 35 30 30 30 29 31 30 30 32 33 34 31 28 28 26 26 25 27 29 27 26 27 29 34 38 36 38 33 29 29 30 26 24 27
42 39 38 36 32 30 27 25 26 27 29 32 34 34 32 27 24 27 27 28 26 22 20 21 22 26 30 31 35 38 35 34 29 28 26 18 21 18
40 38 35 32 29 26 22 23 24 26 29 31 32 32 29 24 22 25 27 27 27 26 17 14 17 22 27 31 36 40 40 33 27 26 22 24 19 17
37 36 33 30 28 25 25 23 25 27 29 30 30 30 28 26 25 24 25 27 25 22 18 19 20 18 22 30 39 45 43 35 27 24 22 19 18 16
34 33 30 28 25 24 25 26 27 28 30 28 27 28 29 26 26 25 25 24 21 18 18 20 21 22 26 32 35 40 44 39 25 22 21 21 25 26
31 29 27 25 24 24 26 27 27 27 25 24 26 28 29 28 26 25 24 23 21 17 15 17 19 19 25 30 35 38 41 39 25 21 26 20 24 26
27 25 24 23 24 25 26 26 25 23 24 26 27 27 28 28 25 24 22 21 19 17 13 15 17 19 17 18 23 31 35 37 28 18 23 19 22 23
24 22 22 23 25 25 25 23 21 24 25 25 25 26 26 26 25 23 20 19 17 16 14 13 14 14 15 17 22 28 31 32 32 22 16 25 19 24
22 21 22 23 23 24 23 23 25 26 26 26 25 25 25 23 22 21 20 18 16 15 13 10 11 13 14 16 19 22 27 28 29 30 23 21 20 24

GFSNE_700_spd_039.txt.gz
Wind_Speed
40 40 41 43 45 47 50 53 57 65 68 68 69 69 68 67 65 65 63 59 55 52 52 52 51 50 49 50 51 51 50 42 43 46 47 48 48 47
41 41 43 45 46 49 52 54 56 60 70 67 68 66 65 64 61 58 54 51 50 49 47 46 43 41 41 41 44 46 48 54 50 52 58 58 54 56
43 43 44 47 49 50 52 54 56 59 66 68 65 62 61 59 55 51 50 47 42 36 37 37 37 39 39 41 42 44 44 44 45 43 45 44 46 48
43 44 46 48 50 51 53 56 59 60 62 65 61 58 55 51 49 45 42 39 38 38 34 32 34 36 39 41 42 42 42 43 45 46 43 42 41 46
45 47 49 51 52 53 56 58 59 58 57 58 57 52 50 44 41 41 42 39 37 34 32 33 34 33 35 38 39 40 42 43 44 44 47 48 45 45
46 48 50 52 54 56 58 59 58 55 52 51 51 50 45 41 41 44 42 32 38 34 28 34 32 32 34 35 37 38 39 40 41 42 43 44 46 49
47 49 51 52 54 56 56 55 53 51 47 45 46 45 40 40 41 38 39 37 33 38 32 33 38 35 35 35 36 36 38 40 40 38 39 39 41 43
50 50 52 53 54 54 51 49 47 44 40 41 44 40 39 40 36 38 39 40 40 38 44 37 39 37 38 37 36 37 38 39 39 39 39 39 41 40
50 52 53 54 53 51 48 45 42 37 35 38 39 36 38 34 37 37 37 41 44 44 46 43 36 39 38 34 29 31 34 35 36 36 36 36 38 40
51 52 53 52 49 48 45 43 39 34 32 32 33 31 32 34 35 38 42 44 44 39 39 43 39 40 32 21 21 25 29 31 32 32 31 31 30 31
52 51 51 49 46 42 41 40 36 31 30 30 27 28 28 30 36 40 40 43 41 34 29 40 38 37 26 16 17 21 22 26 29 30 30 30 28 27
51 49 46 43 40 38 38 38 36 32 29 23 25 25 29 31 33 35 35 37 38 36 32 40 37 35 28 23 25 27 27 26 28 28 29 30 30 31
51 46 42 39 37 36 35 33 33 32 27 27 24 27 30 31 32 30 29 32 33 34 33 37 33 28 31 36 30 31 34 31 30 25 24 25 27 29
46 41 38 37 36 34 32 31 30 28 29 28 28 30 31 31 30 26 26 28 28 31 30 29 29 29 30 32 36 39 38 37 29 25 25 24 26 29
42 38 36 35 34 30 29 28 27 28 28 29 30 32 32 30 26 26 24 26 24 25 25 23 24 25 27 30 38 43 47 39 25 24 24 24 26 27
40 38 35 34 31 28 25 24 26 27 29 31 32 32 29 27 25 27 28 27 25 18 19 19 21 22 24 28 36 42 44 43 24 23 25 24 24 28
40 36 32 30 26 24 22 23 24 26 28 30 30 27 26 27 25 26 27 26 26 24 16 15 18 19 20 28 33 41 45 36 21 25 31 29 20 18
36 32 30 28 26 24 23 23 25 27 28 27 25 28 30 30 28 25 26 26 24 22 19 18 20 17 17 20 33 41 42 31 21 32 27 23 18 11
31 28 27 25 23 23 25 26 26 25 24 26 29 30 31 29 29 27 26 24 21 20 18 19 21 24 23 25 29 35 39 32 21 32 31 25 21 18
27 25 24 23 23 24 25 24 22 22 25 27 28 29 29 29 28 27 25 23 21 19 17 16 18 20 24 27 30 32 33 32 23 26 28 26 24 22
23 22 22 23 23 23 23 21 22 24 26 27 26 26 27 28 26 25 23 22 20 19 16 14 15 18 21 20 21 26 26 29 24 23 26 23 29 29
21 20 21 22 21 21 21 21 22 24 25 25 24 24 25 26 25 24 24 23 20 17 16 15 14 15 16 18 20 23 24 25 23 20 18 26 25 27
19 19 20 20 21 21 21 23 24 25 25 23 21 23 25 23 23 23 22 21 21 18 16 14 15 15 14 16 18 21 23 21 23 21 19 17 24 28

GFSNE_700_spd_042.txt.gz
Wind_Speed
41 42 42 42 42 44 46 49 53 59 60 61 61 63 64 65 66 65 64 61 56 52 51 49 47 46 45 45 46 47 48 49 50 48 54 56 45 47
42 42 43 43 44 46 49 52 54 58 64 61 62 63 62 62 61 60 56 52 49 46 43 40 40 42 42 42 40 41 42 45 47 49 49 48 50 48
43 43 43 45 46 48 51 53 55 57 62 64 62 60 59 59 58 52 50 47 41 39 36 36 35 35 37 38 39 39 41 41 42 42 44 47 45 42
43 44 45 46 48 50 52 54 56 57 60 64 60 58 57 56 51 48 45 41 40 38 30 31 33 34 36 38 38 39 40 42 42 42 42 44 45 47
43 45 46 48 50 52 53 55 57 58 57 59 60 55 54 50 46 43 43 40 36 34 31 32 35 35 36 38 39 40 40 41 42 44 44 43 43 45
44 45 47 49 51 53 54 55 57 56 56 54 53 53 51 44 42 43 44 32 37 34 31 37 37 37 37 36 34 37 40 43 45 46 46 45 43 43
45 47 49 50 51 53 54 54 54 54 51 48 49 49 45 40 40 39 39 38 34 41 39 34 37 32 31 31 35 38 42 44 44 44 45 45 44 44
47 48 50 52 52 52 52 51 50 48 45 44 45 45 40 38 37 36 39 39 42 36 44 32 33 27 30 31 31 36 36 34 33 31 31 32 35 37
48 49 51 52 52 52 51 48 45 42 40 41 41 38 39 33 36 34 36 41 43 41 42 35 30 29 31 22 23 27 30 32 33 33 31 29 30 31
48 50 51 51 50 49 47 45 43 40 36 35 34 33 31 33 34 37 40 40 40 37 37 40 32 30 23 14 19 21 27 31 33 35 36 36 34 33
50 49 50 50 47 44 43 42 40 35 32 31 30 28 27 28 34 38 38 43 39 33 28 37 32 33 22 11 14 19 25 31 33 35 38 39 39 36
51 49 47 45 42 39 39 39 38 32 31 25 25 26 27 29 32 36 39 39 35 33 30 36 32 34 25 17 19 23 28 33 36 39 36 34 35 36
50 47 44 42 39 37 36 35 34 33 27 27 26 27 29 32 33 33 34 34 34 34 31 36 34 29 31 32 23 27 35 38 40 35 29 29 32 35
46 45 41 39 37 34 33 31 30 28 29 28 28 29 31 31 29 29 29 31 31 33 31 31 34 30 31 32 33 33 36 36 36 29 28 28 28 29
43 40 37 35 32 30 28 28 27 29 30 31 31 31 31 29 29 31 28 29 27 26 28 28 28 27 30 32 37 38 45 36 28 27 32 39 35 33
41 37 34 30 29 26 24 25 27 29 30 31 30 29 29 30 30 32 31 29 27 22 21 24 23 24 29 28 32 37 37 36 28 27 36 34 32 30
39 35 30 27 25 24 24 25 26 28 28 27 27 30 30 31 29 29 28 27 27 25 20 18 19 21 24 27 28 31 35 31 25 28 34 34 29 29
35 31 27 26 24 24 24 24 25 24 24 26 28 29 30 30 29 27 27 27 26 22 23 21 19 19 17 16 25 32 31 29 25 25 27 33 29 26
30 26 25 24 24 24 24 24 22 22 26 27 29 29 28 28 28 27 26 26 23 21 20 21 20 23 23 21 16 28 33 28 22 22 22 26 30 25
24 23 23 23 23 23 23 22 22 24 27 28 27 27 26 28 29 27 25 26 24 22 18 19 19 20 23 25 27 25 29 28 24 21 20 21 22 28
21 21 22 23 22 22 22 22 24 26 27 27 25 24 26 28 28 28 25 24 24 24 20 19 18 19 21 21 23 25 25 24 21 19 20 17 18 20
19 20 21 21 22 22 21 22 23 25 25 24 24 25 26 28 28 27 25 25 23 22 19 18 18 18 18 19 21 25 26 20 18 16 17 20 22 24
18 18 19 20 21 22 22 23 25 25 25 25 24 25 26 26 26 26 25 23 22 21 19 17 17 17 18 18 22 23 24 21 18 12 13 16 18 23

GFSNE_700_spd_045.txt.gz
Wind_Speed
42 43 44 43 43 43 44 46 50 54 54 53 55 57 59 60 62 64 64 63 59 56 54 51 47 46 44 43 42 42 42 43 43 44 44 45 46 44
43 45 44 44 44 44 46 47 50 54 59 57 58 59 59 61 61 60 60 56 52 48 47 43 42 42 42 38 36 37 38 37 39 41 41 42 42 41
45 44 44 45 44 45 47 50 52 54 59 59 58 58 58 59 58 55 52 50 46 42 39 38 36 36 36 38 38 38 38 38 38 39 40 42 42 43
44 44 44 45 46 47 50 51 54 55 58 62 60 59 57 55 53 51 47 45 41 39 35 30 34 33 36 39 41 41 40 40 40 41 42 42 44 45
43 44 44 46 47 49 51 53 55 55 57 60 61 57 54 51 49 46 44 41 38 34 33 31 36 35 40 41 41 41 40 40 41 42 43 45 45 45
43 44 45 47 48 51 53 54 54 55 56 56 55 52 50 48 46 45 42 39 33 34 33 33 39 36 37 35 33 31 34 39 41 40 36 35 36 37
43 44 46 48 50 52 53 54 54 54 52 50 49 49 48 45 42 41 40 37 33 35 43 31 38 33 29 26 28 31 36 37 32 29 28 28 30 30
44 45 48 50 52 53 54 53 51 49 47 45 45 47 44 40 40 38 37 38 39 33 43 33 33 27 25 26 26 30 30 28 28 29 31 32 33 34
45 47 49 51 51 52 52 50 47 44 41 42 44 43 41 37 37 37 35 36 40 38 42 37 30 23 26 24 21 24 26 27 29 32 34 37 38 38
47 48 50 51 50 50 49 47 45 42 40 40 40 38 35 33 36 37 38 39 36 37 37 40 33 27 25 20 14 18 23 26 27 32 37 40 42 44
49 49 50 50 48 48 47 45 42 39 36 34 34 32 31 30 32 37 35 40 38 33 28 38 35 33 26 17 12 16 20 23 29 36 40 42 41 37
48 48 47 46 45 44 43 42 40 36 33 30 26 28 29 29 31 34 37 38 38 37 28 38 35 38 32 16 13 16 20 24 31 38 38 35 30 32
48 46 44 42 42 39 37 34 34 34 30 29 29 28 30 32 32 31 31 35 39 38 32 38 36 35 36 34 20 21 25 29 35 38 33 25 25 31
45 43 40 39 37 33 32 32 31 30 30 30 31 31 31 29 27 29 31 33 34 36 33 33 36 36 36 33 30 25 26 28 35 37 31 28 32 33
42 40 38 36 32 29 29 29 28 30 31 30 30 28 28 30 31 31 30 30 29 28 29 30 33 33 32 32 36 33 36 31 33 33 30 29 33 34
40 38 35 30 28 27 26 26 28 29 30 30 29 31 32 32 32 32 33 31 29 24 23 25 28 31 30 28 33 35 33 36 34 32 31 29 30 33
39 35 30 25 24 24 25 26 26 27 28 29 32 34 34 32 29 29 30 30 30 29 25 22 23 26 27 28 31 30 31 31 33 33 32 29 29 31
34 30 25 25 24 24 24 23 24 26 27 29 31 32 32 30 29 29 31 31 30 29 29 27 26 22 20 19 24 29 28 33 34 30 28 29 30 29
28 25 24 24 24 24 24 25 24 25 28 30 31 30 28 27 30 31 32 30 29 29 27 26 26 27 27 23 13 19 32 34 33 28 25 25 26 31
23 22 22 23 23 23 23 24 24 26 28 29 28 27 28 30 30 31 31 31 30 28 26 23 24 25 27 29 26 18 24 33 33 31 22 23 25 26
19 20 21 22 22 23 24 24 26 28 29 29 28 27 28 30 30 29 29 28 28 27 26 22 21 23 25 26 26 23 22 26 27 30 26 23 20 23
17 18 20 21 22 24 25 26 26 27 27 27 27 27 28 29 28 27 26 26 24 24 24 21 21 22 23 24 26 27 27 24 24 24 22 24 26 29
15 17 18 20 22 23 25 25 26 26 27 28 28 28 28 27 24 24 22 22 23 24 24 21 19 20 22 21 24 29 29 27 26 23 19 21 26 31

GFSNE_700_spd_048.txt.gz
Wind_Speed
37 40 41 43 45 46 46 46 48 52 50 46 49 50 51 53 55 58 61 60 59 56 54 53 52 50 47 46 44 42 39 40 39 37 36 36 36 36
40 42 44 45 46 46 46 45 46 50 56 53 54 55 56 57 58 59 59 56 52 49 48 46 42 40 41 40 36 35 35 34 36 37 38 38 38 37
42 44 45 46 46 45 45 46 47 50 55 56 57 59 60 60 59 56 53 50 48 43 40 37 35 37 35 34 36 37 35 36 37 37 38 39 40 40
44 45 45 46 45 46 47 48 49 51 56 60 60 60 59 57 55 53 49 45 42 36 35 32 30 34 32 36 39 40 40 41 41 40 41 39 39 40
44 44 45 45 45 46 48 50 51 54 55 58 59 57 55 51 50 47 45 40 36 34 31 28 32 32 35 38 40 39 39 40 38 36 35 35 37 37
42 43 43 44 46 48 50 51 54 55 55 55 55 53 50 47 45 44 40 36 33 29 30 27 35 34 34 37 35 34 34 34 34 34 33 31 27 26
41 42 43 45 47 50 52 54 55 55 54 54 53 50 46 43 41 39 38 36 28 30 35 29 37 32 33 29 30 28 31 33 35 32 27 23 23 26
40 41 43 45 47 50 51 52 51 50 50 49 48 45 43 39 38 38 35 35 36 27 38 34 36 33 29 27 26 26 30 31 30 27 25 25 25 27
41 43 45 46 49 50 50 50 47 44 42 42 42 40 40 36 37 37 34 35 34 35 41 40 34 33 27 26 24 25 27 28 28 27 27 28 32 35
42 44 47 49 49 49 50 49 46 42 38 36 35 37 36 33 35 38 38 39 34 34 37 44 35 33 25 23 20 21 22 25 28 29 30 32 35 39
43 46 47 48 48 47 47 46 42 35 32 30 30 31 32 32 33 38 38 40 38 32 29 41 37 34 26 20 17 16 19 24 26 29 30 34 37 38
44 45 44 45 45 43 42 41 36 32 30 27 25 27 30 31 32 33 36 38 39 38 31 38 35 37 33 20 17 14 16 20 24 27 29 34 36 36
45 44 43 43 41 38 35 32 31 31 29 29 29 28 28 28 28 30 33 36 38 39 34 38 38 36 38 35 23 18 17 20 23 24 27 31 33 32
46 45 42 39 37 32 29 29 28 29 30 29 28 27 28 28 28 29 30 31 33 36 34 34 38 38 38 37 33 22 19 21 25 25 28 31 29 28
43 41 38 35 30 25 26 27 28 29 29 29 28 29 31 32 30 29 26 28 28 28 29 31 33 34 36 36 37 29 29 24 24 28 31 29 28 29
39 35 34 29 25 25 24 26 27 28 30 30 31 32 32 31 28 28 30 30 30 25 24 29 30 34 34 33 36 33 29 33 29 30 33 30 27 29
37 34 29 23 22 22 23 25 26 27 28 28 31 33 32 29 26 29 31 32 33 33 29 26 27 30 30 32 32 30 30 31 29 33 34 32 26 27
34 29 23 22 22 22 23 22 25 27 28 30 32 33 33 32 31 29 32 33 34 33 32 30 31 31 25 22 28 28 25 29 30 31 32 33 26 25
27 22 21 21 21 22 24 25 26 26 29 31 32 32 32 31 32 32 32 32 32 31 28 28 30 31 31 28 18 24 29 28 33 32 30 31 30 26
22 20 20 20 21 22 24 25 25 27 28 29 30 31 31 32 32 31 30 30 31 29 27 26 26 27 30 33 30 22 23 31 34 32 30 28 27 28
17 18 19 19 21 22 24 25 26 27 29 30 30 31 31 32 31 29 28 27 28 28 28 25 24 26 28 30 29 26 21 26 29 32 30 30 30 26
16 17 18 20 21 23 24 24 25 27 28 30 31 31 31 31 30 28 26 26 25 27 26 25 26 26 26 26 28 30 29 24 22 24 26 28 31 31
14 15 17 19 21 22 22 24 25 27 29 31 32 32 30 27 25 24 23 23 25 26 27 26 25 24 22 24 27 27 26 26 24 22 22 24 25 25

GFSNE_700_spd_051.txt.gz
Wind_Speed
31 33 36 39 41 45 47 48 49 52 50 44 45 45 47 49 51 54 58 59 59 58 58 58 57 56 55 54 52 50 44 43 41 39 37 35 34 34
33 35 39 41 45 47 47 46 47 50 54 51 50 50 51 53 55 58 59 58 57 55 53 52 51 49 47 46 43 41 40 35 35 36 36 36 36 35
35 38 41 44 46 46 46 46 46 48 52 53 54 55 58 59 59 58 57 55 53 49 47 44 41 41 41 39 38 36 35 35 35 37 38 39 40 40
38 40 44 47 45 45 46 46 47 49 52 56 57 59 59 58 59 58 55 51 48 42 39 35 35 36 34 35 34 36 38 38 38 39 39 39 40 40
40 44 45 44 44 45 46 47 49 50 52 56 58 57 56 54 53 51 48 44 40 36 33 32 30 32 32 34 37 39 39 39 38 37 36 33 33 34
44 42 43 43 45 46 47 49 51 53 54 56 57 56 54 50 47 47 44 38 34 29 29 28 30 30 33 35 37 37 38 38 36 36 32 30 31 31
40 41 42 43 45 47 49 51 53 53 52 53 53 52 48 44 42 40 39 37 28 26 31 31 31 33 32 33 34 34 34 34 35 34 32 32 30 28
38 40 41 43 45 46 49 52 51 49 49 49 48 46 41 38 38 38 37 37 36 25 34 37 34 35 32 31 31 31 32 33 34 33 32 29 27 26
38 39 41 43 46 49 50 49 47 43 42 43 41 37 38 35 36 37 38 39 37 34 38 43 34 36 32 32 30 27 29 31 33 31 32 30 29 28
38 41 43 46 48 49 49 48 45 41 39 35 33 33 33 33 36 39 40 42 40 32 35 44 37 37 34 30 25 25 25 28 30 31 32 31 30 30
39 42 46 48 47 47 47 45 42 37 31 29 28 30 32 32 33 37 37 40 41 36 31 40 37 38 33 25 21 20 23 25 28 31 33 34 33 34
41 43 43 45 45 44 43 42 38 31 28 26 24 25 27 28 29 32 37 40 41 40 29 38 37 38 35 25 21 18 20 22 27 29 32 32 33 35
43 42 42 43 42 39 38 35 31 30 29 28 26 26 25 26 28 30 31 34 35 35 31 38 40 37 39 38 28 23 20 20 25 26 29 29 30 33
43 42 42 41 38 35 31 28 28 29 29 27 27 27 28 28 28 30 29 29 29 33 34 35 40 38 39 38 35 27 20 20 23 25 27 27 28 31
41 41 40 37 33 28 25 26 27 28 28 29 29 28 30 31 30 31 28 29 29 28 31 33 36 37 38 38 38 32 28 22 21 22 23 25 27 30
38 37 35 32 27 24 24 25 27 28 30 31 32 32 32 32 30 31 32 32 32 28 25 30 33 34 35 35 36 33 28 31 26 23 24 25 27 31
38 34 30 23 20 21 22 23 25 27 28 29 31 32 31 32 30 30 31 33 34 34 31 27 27 30 32 33 32 28 27 26 24 26 29 30 29 29
34 30 24 20 20 20 20 20 24 27 28 29 30 31 32 32 32 31 32 33 34 32 31 29 30 31 28 24 28 27 21 24 24 26 30 36 29 24
29 23 19 19 19 20 22 24 24 25 27 28 30 32 33 34 35 34 33 32 30 29 27 28 30 33 34 29 20 24 30 27 30 28 30 31 32 25
24 18 17 18 18 20 22 23 23 25 26 29 30 32 33 35 34 33 30 29 29 28 27 26 28 28 31 34 31 19 22 31 33 34 30 30 31 29
16 16 16 17 19 20 21 22 24 25 28 29 30 31 32 32 30 29 28 27 28 29 28 26 26 27 28 28 28 26 23 25 31 35 36 35 33 32
12 13 15 17 19 19 20 21 22 24 26 29 31 32 31 29 29 28 27 28 26 27 26 26 27 25 24 28 30 32 30 27 25 26 28 30 29 29
10 12 14 16 17 18 20 21 22 24 28 30 31 31 31 30 28 26 25 25 26 27 28 26 23 22 25 27 30 32 31 29 26 21 15 17 19 20

GFSNE_700_spd_054.txt.gz
Wind_Speed
37 34 31 35 37 40 43 47 50 54 52 46 46 45 47 48 50 53 55 57 60 62 63 63 64 64 63 62 60 59 57 55 53 50 46 43 40 39
38 36 32 36 38 42 47 49 52 52 55 52 48 48 49 50 52 56 59 62 62 63 62 61 60 58 55 53 52 51 49 47 44 41 38 38 38 37
40 32 34 35 40 46 49 51 49 50 52 52 53 53 53 54 55 57 58 60 59 57 56 53 50 48 48 48 46 45 43 41 38 37 36 39 40 41
27 28 33 38 44 47 49 48 48 48 51 53 54 55 57 57 58 59 57 55 53 48 45 41 40 41 42 43 43 41 41 39 38 39 38 40 41 41
31 31 38 42 45 46 46 47 48 49 50 54 56 57 58 57 58 55 54 48 43 38 34 34 35 36 36 37 40 41 40 41 42 40 39 39 39 39
32 35 40 43 42 44 46 47 49 50 51 54 58 59 58 55 52 51 46 38 37 31 30 34 33 35 36 38 40 41 42 44 43 40 38 38 37 34
34 38 39 40 43 44 47 48 50 52 53 55 57 57 53 49 44 40 40 39 36 32 33 39 36 37 36 38 40 40 41 42 42 39 37 37 35 32
34 36 39 41 43 45 47 49 52 53 53 54 54 51 46 41 38 38 40 39 37 28 30 34 32 34 34 35 35 36 38 39 39 38 36 35 35 34
35 37 39 42 44 46 49 51 51 50 49 49 49 43 39 37 38 39 37 37 36 31 35 41 33 33 31 32 33 35 35 37 38 37 35 34 34 34
36 39 41 42 45 49 51 52 51 47 44 43 38 35 35 35 35 37 37 40 38 36 34 43 37 34 32 29 28 28 28 32 34 35 36 35 33 33
37 39 42 46 48 48 50 50 47 42 39 33 30 31 33 33 33 37 37 40 39 39 30 41 37 37 35 29 24 21 23 28 32 35 37 35 32 33
36 41 44 46 46 46 47 46 43 39 32 27 25 26 29 29 31 34 37 41 41 41 31 39 40 40 40 34 27 24 24 24 30 33 34 34 34 37
40 42 42 44 44 44 42 40 37 32 29 29 27 26 26 28 28 30 34 37 38 37 33 39 42 42 44 45 39 31 28 26 26 28 31 33 35 37
42 42 43 43 42 39 36 31 28 28 28 27 28 28 29 29 28 31 33 34 36 35 34 38 43 43 44 46 44 35 28 26 26 23 26 29 34 36
42 42 43 41 37 33 27 26 26 26 27 28 29 29 30 32 32 32 32 33 33 31 32 36 39 40 41 43 43 36 32 25 22 21 22 27 31 35
39 39 37 34 31 25 23 24 25 27 28 29 29 30 31 33 33 34 34 35 35 32 26 29 33 37 38 37 39 35 28 30 25 24 25 23 26 29
37 34 30 26 20 20 21 22 24 25 26 27 29 32 33 34 35 35 34 33 34 32 29 25 27 32 34 36 35 31 30 27 25 28 27 26 24 26
33 30 26 19 17 17 18 19 22 23 25 27 29 32 34 35 35 33 33 31 30 28 27 27 29 31 30 26 30 27 21 25 24 25 28 32 28 26
29 24 18 16 16 17 18 19 19 21 23 26 29 31 32 33 34 32 31 29 27 27 27 27 29 32 35 33 23 25 34 33 33 32 32 33 35 26
25 17 15 15 16 17 17 18 19 20 23 26 27 30 32 33 32 32 30 30 29 28 26 25 27 29 32 34 33 25 26 32 32 33 30 30 30 28
15 12 12 14 15 15 16 18 20 21 24 26 27 29 31 31 30 30 29 27 29 29 28 26 26 26 27 31 33 32 29 27 28 30 30 29 25 22
8 9 11 13 14 15 17 18 19 21 22 24 27 29 30 30 29 29 29 30 30 30 29 27 26 27 28 30 34 34 30 24 19 18 19 22 26 28
7 9 11 12 14 16 17 18 19 21 23 25 27 28 29 29 29 29 29 30 31 31 31 29 28 28 30 32 31 28 23 20 21 20 21 23 22 22

GFSNE_700_spd_057.txt.gz
Wind_Speed
41 42 38 37 38 39 38 38 38 46 47 46 49 49 48 49 49 51 53 55 57 59 60 62 63 64 65 65 66 66 65 63 60 56 54 52 49 47
42 42 44 39 41 46 44 42 41 47 53 53 50 49 48 49 50 53 55 57 60 61 62 64 64 65 64 63 60 56 53 51 49 48 44 42 39 39
43 45 37 42 43 38 38 41 46 50 53 52 52 51 51 51 51 54 57 59 59 58 59 58 58 55 52 50 48 48 47 47 46 43 41 39 39 38
49 42 41 34 43 40 40 44 47 48 49 52 52 53 54 54 57 59 58 58 57 53 49 47 45 43 43 43 45 45 46 47 45 44 40 39 39 38
36 37 38 39 36 39 42 44 44 46 48 51 54 55 57 58 59 59 59 56 51 44 39 40 39 39 40 41 43 45 46 47 48 47 44 41 41 41
30 35 34 36 39 40 40 42 44 46 48 51 54 58 59 57 58 58 57 49 44 36 35 37 36 36 37 38 41 44 47 48 50 50 48 44 42 42
25 31 34 37 36 38 40 42 45 48 50 54 56 57 56 56 53 51 49 43 39 34 31 34 34 34 32 34 36 39 42 45 46 46 45 42 40 40
28 32 31 34 36 38 41 45 48 51 52 54 54 55 54 51 47 43 42 40 40 33 31 33 33 35 33 34 33 34 36 39 41 42 41 39 37 38
29 32 33 36 38 41 43 47 49 49 49 51 52 50 49 44 42 41 41 39 39 36 36 37 37 37 34 32 30 31 33 35 38 39 39 38 35 36
31 33 35 37 40 44 47 49 49 46 46 46 43 41 39 37 39 40 40 41 41 39 38 41 40 39 37 35 31 31 30 32 37 39 39 37 36 35
33 36 38 40 43 45 47 48 47 45 43 38 34 32 34 35 37 40 40 42 42 41 39 42 40 41 39 39 35 28 27 28 33 35 37 38 38 36
34 37 40 42 43 45 47 48 46 42 37 29 27 28 30 32 34 38 40 43 44 45 41 43 42 44 44 41 39 32 30 28 31 32 35 37 37 37
36 38 40 42 43 45 45 43 40 36 30 28 27 27 28 30 31 33 36 39 41 41 37 40 41 42 44 45 41 37 32 28 28 29 31 33 36 36
39 40 42 42 43 42 39 35 30 26 26 26 27 27 29 30 31 33 35 37 39 40 36 36 41 41 43 44 43 38 32 28 30 27 27 28 31 34
41 42 43 41 38 35 31 25 23 23 24 25 26 27 29 32 34 35 35 35 35 33 33 34 37 39 40 41 43 38 36 31 26 26 27 28 29 32
40 39 38 35 31 26 21 21 22 24 25 25 26 28 31 32 33 35 35 35 33 28 24 27 31 35 37 38 41 39 34 36 32 29 30 28 28 28
37 34 30 27 21 18 19 20 22 23 23 25 27 29 30 31 31 33 33 33 32 31 27 25 28 32 35 37 36 32 31 28 27 29 30 30 27 27
30 26 22 17 13 14 16 18 20 21 22 24 27 30 32 32 31 30 32 33 32 31 30 30 31 31 30 27 30 27 22 28 26 26 28 30 26 21
22 19 13 11 12 14 16 17 17 20 22 25 27 29 31 31 33 32 31 32 31 31 29 29 30 32 35 34 28 30 35 32 34 31 28 29 29 23
15 10 9 11 13 14 16 16 18 20 22 24 27 29 32 33 33 32 31 31 32 32 32 30 29 30 33 38 39 31 27 29 28 27 25 25 26 23
8 8 10 12 13 15 16 18 19 21 23 25 27 28 30 32 32 31 30 30 33 34 33 30 28 28 30 32 32 27 20 18 22 26 27 28 25 21
8 9 10 12 14 15 16 17 19 22 23 25 26 28 30 31 32 31 32 33 32 33 32 31 30 30 28 27 27 25 22 21 23 25 27 27 27 29
7 8 10 12 14 15 16 17 19 22 25 26 28 29 31 31 31 32 33 33 33 33 33 31 29 27 24 24 24 22 24 30 34 37 35 32 24 21

GFSNE_700_spd_060.txt.gz
Wind_Speed
38 42 38 43 41 43 47 43 47 44 46 43 44 43 45 49 50 51 52 52 53 54 55 56 58 59 61 61 63 63 63 62 60 60 57 53 51 50
41 41 39 39 44 50 47 47 44 47 50 45 44 46 48 48 48 50 51 53 55 56 58 60 62 63 63 62 62 59 57 52 48 47 45 45 44 43
40 42 42 39 43 40 43 46 41 43 46 43 46 46 46 47 47 49 52 55 57 58 59 61 61 60 58 56 52 48 45 44 42 42 42 42 42 40
40 45 39 42 42 38 42 39 38 39 44 47 46 47 48 48 50 52 55 58 59 59 57 56 56 53 51 46 45 44 43 40 39 39 41 43 43 43
39 49 40 42 36 37 37 36 39 41 43 46 47 47 49 50 54 56 59 59 57 54 50 50 48 44 42 40 41 41 39 38 38 40 41 42 42 40
42 34 40 36 31 35 34 35 39 43 42 45 47 50 52 54 56 58 59 57 54 46 40 41 40 38 36 37 39 38 38 39 40 42 42 42 41 39
36 31 29 30 31 32 34 38 39 42 43 46 49 51 53 54 55 56 55 52 45 37 36 35 34 34 33 36 37 38 39 40 41 42 42 42 41 40
25 27 28 28 29 32 34 38 40 43 45 49 51 52 52 52 51 47 44 41 41 37 36 34 34 34 34 38 36 36 34 35 36 38 40 41 41 39
25 27 29 29 32 33 36 41 43 44 47 49 50 48 47 43 41 39 39 39 40 39 41 40 40 39 38 37 35 33 31 31 33 37 39 41 42 40
25 28 30 31 33 37 41 43 42 42 45 45 43 40 36 34 36 38 39 41 42 42 42 45 42 42 41 38 35 30 29 29 32 36 39 42 45 42
26 29 31 34 38 42 44 44 43 41 40 35 31 29 29 30 33 37 37 40 42 42 42 48 43 43 41 38 35 30 23 25 30 32 36 42 44 42
29 32 37 40 42 42 42 41 40 36 31 25 23 24 26 28 30 33 37 41 43 45 39 45 42 44 42 37 34 30 28 26 27 30 34 38 41 42
33 37 40 41 40 39 39 37 34 30 24 22 21 23 23 25 27 30 33 37 40 40 36 42 42 40 42 43 34 30 29 25 25 26 29 33 37 39
37 39 40 39 37 36 33 31 27 22 21 21 22 23 24 26 27 30 32 35 37 38 35 38 42 40 41 41 39 32 29 27 27 26 27 29 31 33
40 40 37 35 32 29 26 22 19 19 19 20 21 23 25 27 28 29 30 32 30 30 31 32 37 39 40 41 43 35 34 29 26 27 27 26 26 28
36 34 30 26 22 20 17 16 17 19 19 20 22 24 27 28 29 32 32 31 29 24 25 31 33 36 36 36 37 34 29 31 27 26 29 27 25 24
25 21 18 17 16 14 15 17 18 19 21 22 25 26 28 29 30 32 32 31 31 32 28 27 30 33 34 35 33 30 30 27 27 28 29 28 25 26
16 12 12 10 10 11 13 16 19 20 21 23 25 28 30 31 31 30 32 33 33 31 32 32 32 31 29 25 31 29 25 28 26 26 26 27 22 18
10 9 8 8 10 12 14 16 16 19 21 23 25 28 30 31 32 32 32 32 30 31 30 31 31 33 35 35 27 28 31 25 24 22 24 26 24 15
6 6 6 8 11 12 13 15 17 19 21 23 25 28 31 32 31 32 32 33 32 32 31 30 29 30 33 34 33 24 19 22 25 26 26 27 27 23
5 5 7 9 11 13 14 16 18 20 22 24 27 29 30 32 32 33 32 31 32 32 32 30 28 26 24 24 25 22 17 21 26 31 34 32 36 33
4 5 8 10 12 14 16 18 19 22 23 25 27 30 31 32 33 34 33 33 31 31 31 30 26 25 20 23 25 25 23 24 26 27 34 39 39 36
4 6 9 11 13 15 16 18 20 22 25 27 28 30 32 32 31 32 32 31 32 33 32 30 26 22 21 23 24 25 25 27 29 32 32 34 36 34

GFSNE_700_spd_063.txt.gz
Wind_Speed
38 43 40 37 41 43 44 46 44 43 43 48 49 43 46 47 46 49 49 49 52 52 51 52 52 53 55 56 58 59 60 61 61 60 59 59 58 55
40 40 43 42 46 44 49 47 49 44 44 41 41 45 43 44 46 49 48 50 52 53 53 54 57 59 60 61 63 63 63 61 59 56 52 49 47 46
42 44 44 46 48 47 50 47 42 41 40 39 38 38 41 44 44 46 49 51 53 53 55 57 59 61 62 63 62 61 60 57 53 47 44 43 43 41
44 44 44 45 49 52 46 39 40 39 38 38 38 40 40 41 42 46 48 51 54 55 56 58 60 59 58 56 54 52 51 48 46 44 42 40 39 39
42 41 43 49 50 39 39 33 35 35 40 34 34 42 44 43 45 48 51 52 53 53 52 52 51 49 47 45 46 46 45 45 43 42 40 39 39 37
38 42 41 40 35 30 30 34 34 32 35 37 41 44 44 45 48 51 52 52 51 45 42 42 39 38 39 40 42 42 43 43 42 42 41 41 40 39
38 34 33 28 28 28 32 33 32 35 38 38 41 44 45 47 49 51 52 48 42 35 33 32 32 33 34 38 41 42 43 44 44 43 43 42 41 40
24 21 20 22 24 27 31 32 33 36 38 41 43 44 45 47 48 46 42 37 33 29 32 32 32 34 35 37 37 37 39 40 41 40 40 39 40 40
14 18 20 23 26 30 33 35 36 40 43 43 42 42 44 42 39 34 30 32 32 30 36 39 36 38 36 34 33 34 34 34 34 34 36 37 39 40
17 20 24 27 30 32 35 37 38 39 39 39 41 39 36 31 29 29 30 32 34 33 37 41 33 34 33 31 29 29 29 31 32 32 35 36 38 40
19 23 25 29 34 37 39 38 37 37 36 35 32 28 25 24 27 29 30 34 36 31 34 39 33 33 27 24 23 22 21 23 26 30 33 36 39 41
23 28 32 36 38 39 39 38 33 30 26 22 20 20 22 24 26 29 32 33 36 35 35 37 33 35 32 25 23 24 22 22 23 26 30 33 37 40
28 33 36 38 37 33 30 26 22 18 15 14 15 17 19 21 24 27 30 33 34 33 34 40 36 34 37 37 29 26 24 23 24 25 27 30 33 36
33 35 34 32 28 24 20 17 14 12 12 14 16 17 19 21 23 25 28 29 32 34 33 38 41 38 39 38 34 27 26 25 25 25 25 26 28 30
31 29 25 19 14 11 10 9 10 12 14 16 18 20 22 23 25 26 26 27 26 29 31 35 38 38 39 39 39 30 31 22 24 27 28 27 24 25
24 16 10 7 7 7 8 10 12 13 15 16 18 20 22 23 25 27 27 27 25 22 26 30 33 35 35 34 35 32 29 34 30 29 29 25 24 26
10 5 5 5 6 8 10 12 13 15 17 18 19 21 22 23 25 29 30 30 30 29 26 27 31 32 32 32 30 30 29 24 25 23 21 18 17 20
4 4 5 6 7 9 12 14 14 16 18 19 21 23 24 26 26 28 31 31 31 30 30 30 30 31 29 26 26 23 21 21 18 17 19 21 16 17
1 3 3 4 6 8 10 12 14 16 18 20 22 25 27 28 30 30 31 32 31 31 29 30 32 33 33 30 18 22 25 22 18 18 22 24 24 21
3 1 1 4 6 8 10 12 14 16 18 21 23 26 28 31 31 31 31 33 33 32 30 29 30 30 30 32 28 19 23 23 25 25 25 25 28 28
4 3 3 5 7 9 11 13 15 17 19 21 24 26 28 31 31 31 31 32 33 32 32 29 28 27 27 27 27 24 19 22 22 22 23 26 29 30
6 6 5 6 8 10 12 14 17 19 20 22 24 27 29 30 32 31 32 33 33 33 34 32 30 28 26 26 25 26 25 22 22 26 23 24 32 40
8 8 8 9 10 12 14 16 17 19 21 23 26 28 30 31 31 31 31 32 35 36 35 34 31 29 26 27 27 27 27 27 26 26 21 27 34 42

GFSNE_700_spd_066.txt.gz
Wind_Speed
48 48 43 42 43 44 44 48 47 44 48 51 48 53 48 53 47 47 47 51 47 49 50 48 48 50 51 52 53 55 56 58 59 60 61 62 63 62
48 48 39 42 44 43 47 44 49 53 52 52 54 52 49 43 46 44 45 47 47 47 49 52 52 52 54 56 58 60 61 62 63 63 63 61 62 61
47 42 43 43 40 43 46 49 49 59 55 55 44 41 42 43 42 43 44 43 46 50 51 52 54 56 58 60 62 63 64 63 62 61 58 55 52 50
42 40 39 35 44 46 46 48 53 52 47 38 38 39 42 42 43 43 44 46 48 49 52 54 56 57 59 58 59 59 56 53 51 49 48 48 47 47
38 37 36 38 41 45 44 46 43 40 34 35 36 39 37 41 41 43 45 48 48 48 51 52 52 52 50 48 47 45 43 43 45 46 47 46 45 44
32 34 34 39 43 45 39 36 32 31 32 34 36 38 40 42 43 45 46 48 47 46 49 47 42 40 38 39 40 42 44 45 47 48 48 48 48 46
31 35 37 40 36 33 29 29 30 32 32 37 38 40 41 43 44 45 47 47 44 40 38 32 33 34 36 38 38 39 41 42 44 46 46 46 47 48
37 36 37 26 22 24 27 29 32 33 36 38 40 41 41 42 43 44 43 40 32 27 31 29 32 33 34 32 30 33 35 37 39 40 42 43 42 43
24 23 19 20 21 25 28 30 34 37 40 41 41 39 40 39 38 33 30 29 27 27 33 34 32 33 30 26 27 30 34 35 36 38 38 39 41 41
14 17 20 23 24 28 31 33 36 39 39 38 37 35 33 29 27 25 26 26 26 27 32 36 30 30 26 23 22 25 29 32 36 37 36 36 38 39
16 19 24 25 29 33 34 36 36 35 33 31 28 25 22 21 24 25 27 30 31 26 30 34 30 33 27 22 21 23 26 28 32 34 35 36 36 38
20 24 27 31 35 37 36 32 27 23 20 17 16 16 19 22 24 27 29 30 32 30 33 36 28 34 34 21 23 23 25 27 30 31 34 35 36 38
27 30 31 32 32 29 22 15 11 9 10 12 15 17 19 21 24 26 28 30 31 30 33 39 35 34 37 38 27 26 26 26 29 29 30 31 33 35
28 28 27 25 19 10 5 5 5 7 9 12 13 16 18 21 23 25 27 29 31 32 30 36 39 38 38 37 36 27 28 27 28 29 29 28 29 30
25 22 18 10 3 1 1 3 6 8 10 13 15 16 18 19 22 23 25 27 28 29 32 35 37 37 37 37 38 32 33 27 27 28 27 24 25 27
21 16 10 3 2 1 2 5 7 9 11 13 14 17 19 21 23 26 26 27 27 27 30 33 35 36 36 35 37 34 30 30 25 24 22 17 18 20
16 9 6 5 4 3 4 6 7 9 12 14 16 18 20 23 25 28 29 30 30 30 28 30 33 35 35 34 31 30 27 23 23 21 19 15 15 19
11 8 8 7 5 5 6 8 10 12 13 16 18 19 21 23 26 28 30 31 31 32 31 31 32 33 33 31 29 24 21 22 21 19 23 25 20 21
11 10 9 8 7 7 8 10 12 14 15 17 19 21 23 24 27 28 30 31 31 32 31 31 32 34 35 35 28 25 25 24 27 23 24 27 27 21
12 12 11 11 10 10 10 12 14 15 17 18 20 22 24 26 27 30 31 33 33 33 33 32 32 33 34 35 32 24 22 26 27 27 25 25 26 25
13 13 13 12 12 12 13 15 16 17 19 19 21 23 25 28 29 32 33 33 34 35 36 34 32 32 32 33 33 28 22 22 27 30 28 29 28 28
14 14 15 15 14 14 15 16 18 20 21 23 24 27 29 30 31 32 34 36 34 35 36 36 35 34 31 32 32 30 26 24 25 27 28 30 31 34
16 17 17 17 17 16 17 19 21 22 24 25 26 27 29 30 31 32 35 35 35 36 38 39 36 33 30 31 31 30 28 27 28 28 25 26 30 36

GFSNE_700_spd_069.txt.gz
Wind_Speed
49 52 51 49 47 49 53 57 54 51 48 48 50 47 48 55 56 49 49 56 52 47 49 51 51 50 49 49 49 50 51 52 53 54 54 55 56 58
45 46 47 49 49 51 57 40 48 51 46 45 48 50 51 52 53 49 47 44 46 48 48 50 52 50 52 53 52 53 54 55 56 57 57 58 57 58
47 45 44 44 47 42 48 45 46 43 42 40 47 52 51 50 43 43 42 45 45 44 47 50 49 50 51 52 54 55 56 57 57 57 55 53 51 50
43 44 43 43 43 44 45 37 37 36 41 44 47 48 43 38 38 39 41 43 43 42 45 47 48 51 52 53 55 55 54 52 49 47 45 44 44 44
39 36 38 39 37 37 41 36 43 45 46 46 40 36 35 37 39 42 42 41 42 44 46 47 49 50 50 50 49 46 43 42 42 43 44 45 45 46
44 34 32 32 33 35 36 42 43 43 38 33 33 35 37 38 40 41 42 43 43 44 46 47 45 42 39 39 37 38 40 42 44 45 43 40 38 37
31 34 28 27 35 36 38 41 39 31 33 33 35 37 38 40 41 42 43 43 40 41 40 33 33 30 31 33 34 37 39 40 40 40 40 38 36 35
30 30 21 31 31 34 29 26 28 32 34 35 36 37 38 40 40 39 37 33 27 24 28 23 30 29 30 31 31 32 35 37 38 38 39 37 35 35
25 15 24 21 20 21 24 28 32 34 36 36 37 38 37 34 29 26 25 24 24 25 30 29 29 29 28 26 27 30 33 35 37 39 42 40 37 35
9 11 7 12 22 25 28 30 34 36 37 37 34 27 22 20 19 20 23 24 24 26 31 34 29 30 26 23 25 28 31 34 37 40 43 44 42 40
8 14 20 23 25 29 33 35 38 36 30 22 15 13 14 17 20 21 23 25 26 23 29 32 28 32 24 19 21 24 26 29 33 37 39 40 40 40
18 22 26 30 32 34 35 33 27 18 11 9 10 12 15 17 20 22 24 25 28 26 32 32 28 34 31 18 21 24 25 27 30 31 33 34 35 37
24 27 29 30 30 28 23 15 9 7 8 10 12 14 16 18 21 23 25 27 28 28 32 38 33 32 34 34 24 26 27 27 28 28 29 30 31 33
26 26 26 25 23 17 9 6 6 7 10 11 12 14 17 19 21 23 26 28 30 31 31 36 38 37 37 35 34 28 29 28 27 27 26 25 25 26
25 24 23 20 13 7 6 7 8 9 10 11 13 14 16 18 21 23 26 28 29 30 32 34 37 37 37 36 36 32 34 27 26 25 25 24 23 22
26 24 21 15 9 8 8 8 9 9 10 12 13 15 16 18 21 24 25 27 28 28 29 32 34 35 36 35 35 35 33 33 27 25 26 23 19 21
25 21 17 13 11 10 10 10 11 10 11 13 14 15 17 19 21 24 26 27 29 30 29 30 32 35 36 37 33 33 32 29 26 26 27 27 21 23
25 20 16 14 13 13 13 12 12 13 13 15 16 18 19 21 22 24 27 29 30 31 32 32 34 36 36 35 35 29 30 26 23 24 25 26 22 18
24 20 17 16 15 15 15 15 15 15 16 18 19 21 22 23 25 26 28 31 32 34 33 34 35 39 41 39 34 31 30 28 30 27 27 27 28 24
24 21 17 16 17 17 18 17 17 18 19 20 22 24 25 27 28 30 31 33 34 35 35 34 36 39 41 42 38 28 27 29 29 29 27 27 28 26
24 21 18 18 19 20 20 20 20 20 21 22 24 26 28 30 31 32 32 31 34 36 37 35 37 38 38 38 35 29 26 23 26 29 29 31 30 28
23 21 20 21 21 22 21 21 22 23 24 25 26 27 30 31 33 32 32 32 33 36 37 36 38 38 36 35 34 32 29 23 22 25 26 30 31 35
25 24 23 22 23 23 23 23 23 24 25 27 28 29 30 30 31 31 31 32 35 36 37 37 40 39 36 33 31 32 32 28 27 25 21 24 26 28

GFSNE_700_spd_072.txt.gz
Wind_Speed
45 45 46 46 45 45 46 46 47 51 50 56 58 46 56 48 46 44 38 39 44 40 44 46 45 43 44 47 48 48 48 49 50 48 48 48 48 48
44 44 43 44 43 42 43 43 44 48 49 49 49 47 43 33 36 39 42 43 40 38 38 40 40 43 45 46 47 46 47 48 48 48 49 50 50 49
43 41 41 41 41 41 41 40 42 43 43 37 40 36 36 40 43 41 37 36 35 36 38 39 41 43 44 45 46 45 47 49 50 50 50 49 46 44
44 41 39 38 37 37 37 35 36 38 38 34 40 39 39 38 34 32 34 35 35 36 38 40 42 44 45 47 47 48 49 49 48 47 45 44 40 39
42 42 38 35 34 30 31 35 32 37 34 40 36 38 35 30 31 32 32 34 36 39 41 42 44 44 45 45 44 43 41 40 38 37 37 37 37 37
29 30 32 37 35 29 33 31 32 33 38 34 36 30 30 31 32 33 33 36 37 41 42 40 38 35 33 32 31 31 33 35 37 39 39 37 33 31
24 23 25 29 30 34 34 27 26 31 29 27 28 30 33 33 34 36 38 34 29 28 24 23 25 24 26 29 30 32 34 36 38 36 34 33 31 30
22 23 23 24 27 35 20 19 20 21 26 27 30 32 34 36 36 31 21 17 17 25 26 21 29 27 27 28 30 32 34 35 35 34 33 33 32 31
18 22 23 21 17 13 10 16 24 27 30 31 34 36 34 28 16 14 17 18 21 24 28 21 26 25 24 23 26 29 31 33 34 34 35 35 36 35
8 7 7 10 12 16 23 26 27 30 32 33 31 26 16 11 12 14 17 18 20 23 29 25 26 23 22 21 24 26 28 30 32 34 36 37 38 37
14 15 18 20 23 26 29 30 31 32 30 25 15 10 11 12 14 16 19 19 18 19 26 26 25 26 20 17 20 23 26 29 31 33 33 33 34 35
20 22 24 26 27 28 28 28 26 23 16 9 9 10 12 13 15 17 18 19 23 21 27 25 24 31 25 15 16 20 22 25 27 30 31 32 32 32
24 25 25 26 25 24 24 22 18 11 8 8 10 11 13 14 15 17 19 20 21 23 28 31 27 28 31 31 20 21 23 24 26 27 28 28 28 28
25 26 26 26 25 23 19 13 8 8 9 10 11 13 14 15 16 17 20 22 24 26 28 31 32 32 33 31 30 25 25 26 27 27 27 25 22 23
27 28 27 25 22 18 13 10 9 10 11 12 13 14 14 15 17 19 21 22 23 26 29 31 33 33 34 34 34 32 34 26 28 29 28 24 20 21
28 28 26 23 19 15 12 11 12 13 13 13 14 15 16 17 19 21 21 22 23 23 27 31 32 34 35 34 35 32 34 36 30 30 29 23 22 22
28 27 25 21 18 15 13 14 14 14 15 15 15 17 18 19 20 22 23 24 26 27 27 30 31 33 34 35 35 35 34 32 30 30 29 26 22 22
28 27 25 22 19 17 16 17 17 17 17 18 18 19 20 21 21 23 26 28 29 30 30 31 34 35 34 33 38 36 33 30 26 25 26 28 21 20
28 28 26 23 20 18 19 19 20 20 20 20 21 22 23 23 25 26 29 30 30 30 29 30 34 37 38 39 36 34 31 27 29 28 27 26 24 19
28 28 26 23 21 20 20 21 22 22 22 22 22 23 25 26 26 28 30 31 31 30 28 29 32 35 38 42 41 30 25 25 30 30 27 25 25 23
29 28 27 25 23 23 23 23 23 23 23 22 23 24 26 27 28 29 29 29 30 30 30 30 31 33 36 39 38 33 26 24 27 30 30 30 28 24
29 28 27 26 25 25 25 24 24 25 24 24 24 25 27 28 29 28 28 28 27 29 32 32 32 33 33 37 37 34 29 25 25 25 25 29 31 33
30 30 29 28 28 27 26 25 24 24 23 23 24 25 27 27 28 27 26 27 29 30 32 33 33 34 34 37 36 34 31 30 29 25 19 21 23 27

GFSNE_700_spd_075.txt.gz
Wind_Speed
40 41 42 43 41 40 41 40 40 42 42 40 41 44 50 31 35 34 33 28 29 31 37 40 38 39 39 40 39 40 41 42 42 43 44 43 42 42
40 41 41 41 39 38 38 38 41 39 37 36 36 37 36 33 27 29 32 31 33 35 39 38 34 34 34 36 36 38 39 40 41 42 43 43 43 44
43 45 44 43 40 36 34 35 35 36 37 35 34 26 28 30 32 32 32 30 28 29 30 31 32 31 34 36 38 39 41 43 45 45 45 45 45 44
36 37 38 40 40 36 33 34 36 33 30 31 31 30 31 35 34 33 27 24 25 28 30 31 33 34 36 39 41 43 44 44 44 45 44 43 42 38
30 30 28 28 28 28 32 33 33 31 28 33 33 27 35 32 29 27 27 26 29 31 33 34 35 36 36 36 35 34 34 34 33 32 31 31 31 31
31 29 25 23 22 24 25 27 29 31 34 32 28 28 27 23 24 27 27 29 32 32 29 24 22 21 22 24 26 28 30 31 32 33 33 33 31 30
22 24 22 23 22 20 22 24 28 33 25 28 19 21 23 25 27 28 29 28 23 16 17 21 20 21 24 26 28 30 32 33 33 33 33 32 30 27
16 13 15 13 17 20 22 29 19 19 17 17 21 26 26 28 30 28 18 11 15 16 15 21 21 22 24 26 29 31 32 32 33 32 31 29 28 27
11 12 11 8 8 10 11 13 14 19 24 26 26 28 29 28 21 10 9 11 14 19 17 15 20 20 21 24 28 29 30 31 31 31 30 29 28 27
12 13 15 15 17 20 22 24 27 29 30 31 30 28 22 13 9 9 11 13 16 20 24 18 20 20 19 22 26 28 30 31 31 31 32 33 33 32
17 18 19 20 22 23 24 26 27 28 28 25 22 14 8 8 10 12 12 14 15 19 25 24 22 21 17 18 22 26 29 30 30 32 32 33 33 33
20 21 22 24 24 24 24 23 23 23 21 16 9 8 9 11 12 14 15 16 16 17 22 20 20 25 19 12 16 21 23 27 29 30 31 32 32 32
20 22 24 25 25 24 24 22 20 16 11 9 9 10 12 13 14 15 16 16 17 19 23 24 21 23 25 24 17 20 23 26 27 28 29 30 30 29
21 23 24 25 25 24 22 20 16 11 9 10 12 13 13 14 16 17 18 18 18 20 22 26 27 28 29 28 27 21 24 26 27 27 28 28 28 27
22 23 24 25 24 23 21 17 14 12 13 14 15 15 15 17 18 19 19 19 19 22 25 28 30 31 32 33 31 28 29 28 31 31 30 27 26 25
22 23 24 25 24 23 20 18 16 16 17 18 18 19 19 19 20 20 21 22 21 21 26 29 32 34 33 33 33 30 33 36 33 33 32 25 25 24
22 23 24 24 24 22 20 18 18 19 20 21 21 21 21 21 21 22 23 24 24 25 24 27 31 33 33 34 33 32 32 34 33 31 29 26 23 23
21 22 23 23 23 21 20 19 20 22 23 23 24 24 23 23 23 23 24 26 27 27 27 28 29 31 30 28 31 31 33 33 31 27 27 29 23 18
22 23 24 24 24 23 21 21 22 23 25 25 25 25 24 23 23 23 25 26 27 28 26 27 28 32 33 31 27 29 36 33 32 29 28 28 27 20
22 23 25 26 26 25 24 24 24 25 26 26 26 25 24 24 24 24 26 27 27 25 23 24 26 31 33 35 34 27 30 33 31 31 29 29 27 23
24 25 26 27 27 27 26 26 26 26 26 25 25 24 25 24 24 25 26 26 26 25 24 23 26 30 32 34 35 31 29 28 29 31 31 33 30 22
25 27 28 29 29 29 28 27 26 25 24 24 23 23 24 24 25 25 24 23 23 24 25 25 26 28 30 34 35 33 30 25 26 27 28 31 33 33
27 28 29 30 31 30 29 29 26 24 22 21 21 21 23 23 25 24 23 24 24 24 27 27 27 29 31 33 34 33 32 31 29 25 19 24 28 30

GFSNE_700_spd_081.txt.gz
Wind_Speed
31 33 34 34 36 37 37 37 39 43 43 41 38 35 33 34 32 31 32 32 30 26 21 25 26 28 30 28 30 32 35 38 38 36 34 34 33 32
34 35 35 35 34 34 34 33 33 35 38 38 34 31 32 35 33 30 29 25 23 20 24 26 27 31 31 29 27 27 29 30 31 32 33 34 35 36
33 33 32 29 30 31 31 32 33 33 33 33 30 30 31 33 31 27 29 28 25 24 27 28 28 25 24 25 27 29 30 31 33 35 35 35 35 36
31 29 28 28 30 30 31 32 32 29 29 27 28 28 30 32 32 29 32 34 26 26 21 23 23 25 27 27 29 30 27 24 24 26 28 28 29 30
27 25 25 26 26 25 28 28 26 25 27 28 27 27 29 29 30 28 31 25 25 23 25 25 27 27 28 24 19 19 21 22 24 26 27 28 29 30
21 19 19 18 20 20 21 20 19 21 23 23 22 21 26 29 31 26 25 26 23 25 27 28 28 21 16 17 18 19 20 22 23 25 26 28 29 29
13 11 10 8 7 8 10 11 13 16 18 18 18 19 21 23 23 25 25 27 29 30 30 23 15 15 16 17 19 20 21 23 25 25 25 25 26 26
2 1 7 8 10 12 15 17 19 21 23 24 25 26 25 25 26 30 33 33 32 29 19 15 15 17 18 19 20 22 24 26 26 26 25 25 25 25
4 6 8 10 13 14 16 18 20 22 24 25 26 27 29 30 31 32 30 28 25 15 16 19 16 19 19 21 21 23 25 26 28 28 27 26 25 25
6 9 10 12 14 16 18 20 21 22 23 25 26 26 27 28 28 26 23 17 16 17 16 17 20 19 20 21 21 23 25 28 30 30 28 27 27 27
9 11 13 14 16 18 19 21 22 23 24 24 24 24 24 23 19 16 15 17 19 20 20 19 20 18 20 21 21 24 28 31 32 31 31 30 30 29
12 14 15 16 17 18 20 21 23 23 24 24 23 22 20 16 15 16 19 21 22 23 24 22 21 21 17 20 21 24 29 33 35 34 32 33 32 32
14 15 16 17 18 18 20 21 22 23 23 22 21 20 18 17 18 20 22 24 25 26 27 26 22 24 22 21 19 23 28 31 34 34 33 34 33 34
15 16 17 17 18 18 19 20 21 22 22 22 21 20 20 21 22 24 25 26 27 28 28 28 25 26 27 26 25 21 26 29 30 32 32 32 32 34
16 16 17 18 18 19 20 21 21 22 22 23 24 24 24 25 26 27 28 28 27 27 29 28 28 28 28 29 30 26 29 24 26 30 29 30 31 31
16 17 17 17 18 19 20 21 22 22 23 24 25 26 26 27 29 30 30 30 28 27 30 30 29 30 30 30 30 28 27 29 27 29 29 28 29 29
17 18 18 18 19 21 22 22 23 23 24 25 26 27 28 29 30 30 30 28 27 26 26 28 30 32 33 33 29 28 26 27 30 31 31 30 26 26
18 18 19 20 21 22 23 24 24 25 26 27 27 28 29 29 29 29 29 26 25 25 25 27 29 31 32 29 31 27 27 29 30 30 31 31 26 24
18 19 20 21 23 24 25 25 26 27 27 28 29 30 29 28 27 26 25 24 24 24 25 27 29 31 29 26 22 24 29 29 30 29 30 31 31 28
19 20 21 23 25 27 27 27 27 28 28 29 30 30 30 27 25 24 23 23 23 24 24 26 28 29 29 29 25 17 25 29 31 31 31 31 33 31
20 22 24 26 27 28 28 28 27 28 29 29 30 30 29 26 23 22 22 23 24 24 23 23 26 28 27 29 28 24 21 25 30 34 34 35 35 33
22 24 26 28 30 30 28 28 28 29 30 30 30 29 28 26 24 23 23 24 25 26 25 25 25 27 28 31 31 31 27 25 27 31 33 35 39 39
25 26 28 30 32 31 29 28 29 28 29 30 30 29 29 26 26 25 25 27 27 27 28 26 27 28 29 31 34 34 33 32 32 31 27 30 34 36

GFSNE_700_spd_087.txt.gz
Wind_Speed
26 27 28 30 30 30 31 32 32 32 31 28 25 24 25 23 21 20 19 19 21 23 24 22 19 19 23 24 28 30 27 24 24 24 23 22 22 23
27 28 30 30 30 30 30 28 27 29 30 26 24 24 20 19 18 17 17 17 20 22 25 25 23 27 26 28 30 24 23 21 20 20 22 21 22 20
31 29 30 29 28 27 26 26 26 26 25 23 21 19 18 18 18 18 16 18 19 23 23 25 25 25 24 22 20 20 21 22 23 23 23 24 24 21
32 29 28 26 24 23 24 22 22 19 19 17 14 13 13 14 16 16 16 15 17 17 19 21 21 24 24 22 23 25 26 26 27 25 18 16 16 17
28 25 23 21 21 21 18 16 15 12 10 11 13 15 17 18 18 18 18 18 17 18 19 18 18 20 22 26 29 31 29 25 17 15 16 17 17 18
22 21 19 18 16 13 10 7 9 11 13 14 16 17 18 19 20 21 22 23 22 22 22 22 23 26 29 31 31 29 19 16 16 17 18 18 18 19
18 17 16 12 8 7 8 10 12 13 14 15 17 18 19 20 21 22 23 24 24 25 26 26 27 28 28 27 20 17 18 19 19 20 20 21 21 21
15 13 10 8 8 8 10 12 13 14 15 17 18 19 20 20 20 21 22 23 23 22 24 24 22 21 17 16 17 19 21 22 23 23 23 23 23 22
11 8 8 8 8 9 11 13 15 15 16 17 18 18 18 19 20 21 21 21 21 20 20 20 18 17 17 19 21 22 23 24 25 24 24 24 23 23
9 9 7 8 9 12 14 15 15 15 15 17 17 17 18 19 19 19 20 20 20 19 19 19 21 22 23 22 23 24 25 25 25 25 24 24 24 24
10 7 8 10 12 14 15 15 15 15 15 16 17 17 18 18 19 20 20 20 21 21 21 21 22 24 27 27 27 26 27 26 26 26 26 26 25 25
9 9 10 12 13 15 15 15 15 14 15 15 16 17 18 19 19 20 21 21 22 24 25 25 26 27 27 27 27 27 27 27 28 28 28 28 28 28
10 11 12 13 14 14 15 15 15 15 15 16 17 18 19 20 21 22 22 23 25 27 29 29 27 27 27 27 23 26 27 28 29 30 30 31 31 30
11 11 12 13 14 14 14 15 15 15 16 17 19 20 21 22 22 23 24 25 27 28 30 30 27 26 26 23 20 22 24 25 27 30 32 32 31 29
11 13 13 13 14 14 15 15 16 16 18 19 20 22 23 23 23 24 24 26 28 30 29 28 26 24 23 22 19 18 21 22 25 28 30 29 27 26
13 13 13 14 14 15 16 16 17 18 20 22 23 23 23 24 25 25 26 26 27 30 29 27 22 20 18 19 19 19 22 21 23 26 25 23 23 24
14 13 13 14 15 16 17 17 18 19 21 23 24 24 23 24 25 26 27 27 27 26 28 29 23 18 18 18 18 21 21 22 23 23 23 19 18 21
14 14 15 16 17 17 18 18 19 21 22 23 24 24 23 24 26 27 28 27 26 26 25 25 24 22 21 19 23 22 23 23 23 22 24 22 15 20
16 16 17 18 18 19 20 21 22 23 25 26 25 24 24 25 26 28 29 28 27 26 26 26 26 26 24 22 20 22 22 23 23 23 24 25 23 19
19 19 19 20 21 21 22 23 24 25 26 27 26 25 25 25 26 28 29 29 28 27 25 28 30 30 29 27 23 19 26 25 25 24 25 26 27 25
22 22 23 23 23 24 25 25 26 27 28 28 28 26 26 27 27 28 29 30 30 29 26 26 31 34 33 32 29 25 25 28 29 29 29 30 29 26
25 25 25 25 26 27 27 27 28 29 30 30 30 28 28 28 28 28 29 29 30 31 30 29 30 33 35 37 35 32 27 28 30 31 31 34 35 34
28 27 29 28 29 30 29 32 35 35 34 33 32 30 29 28 29 29 30 31 31 31 32 31 31 32 33 37 38 36 33 30 31 31 28 32 33 34

GFSNE_700_spd_090.txt.gz
Wind_Speed
33 31 27 25 27 27 29 29 30 32 30 24 26 24 24 24 22 20 19 18 18 20 21 23 25 26 26 26 26 28 28 31 33 26 25 26 24 22
29 27 26 26 29 30 31 31 30 29 30 25 23 22 21 20 17 18 18 17 17 18 21 23 25 27 28 28 26 25 28 27 24 22 22 23 24 24
30 28 29 30 31 31 30 29 26 27 26 22 20 19 15 13 12 13 13 13 14 16 18 21 23 23 22 24 23 24 22 23 25 26 27 28 28 27
32 31 31 31 30 29 26 25 25 23 19 17 14 11 11 13 14 15 16 15 15 17 18 19 20 21 22 23 24 23 26 28 29 30 30 30 25 19
32 31 29 28 26 25 23 23 19 16 11 9 11 12 13 15 15 17 18 18 18 18 19 20 21 21 22 24 26 29 32 33 33 28 21 19 19 19
29 27 26 24 22 21 20 16 10 10 10 12 12 13 14 16 17 19 19 19 19 20 20 21 22 22 24 26 29 31 31 30 23 18 19 19 20 20
25 24 23 21 19 17 12 10 10 11 12 13 14 15 15 17 18 19 18 19 18 19 20 18 20 20 21 22 22 22 21 19 19 21 22 22 22 23
22 20 19 18 15 13 12 11 11 12 13 14 15 16 16 17 18 18 18 18 17 19 19 19 19 20 19 18 18 18 20 23 24 25 26 26 25 24
19 18 17 14 13 12 11 11 12 13 15 16 16 16 17 16 16 17 17 17 18 18 19 20 21 21 21 20 20 22 24 26 27 29 29 29 28 27
18 16 14 12 11 10 10 12 13 14 15 15 15 15 16 15 15 16 17 17 18 19 20 21 23 24 24 24 24 25 27 29 30 30 30 29 29 28
16 15 13 11 10 10 11 13 14 15 15 15 15 14 14 15 16 18 19 20 20 20 21 22 24 26 28 28 27 26 27 28 29 29 28 28 28 28
15 13 11 11 10 11 13 14 14 15 15 15 15 14 15 17 18 19 20 21 22 22 23 24 26 28 27 26 27 28 28 27 27 27 26 27 28 29
14 12 11 11 12 13 14 14 15 15 16 16 15 16 17 19 20 21 22 22 23 25 24 25 27 28 27 26 25 26 26 26 26 25 25 25 26 27
13 12 12 12 13 14 15 15 15 15 16 16 17 18 19 21 22 22 22 23 24 25 26 27 27 27 26 24 21 22 24 25 25 25 24 24 26 27
14 13 13 13 14 14 14 15 15 17 17 17 19 20 21 22 22 22 23 24 25 25 26 27 27 26 26 23 18 18 20 21 24 25 26 26 27 28
15 14 14 14 14 14 15 16 17 17 17 19 20 21 23 23 23 23 23 25 26 27 27 27 27 25 23 23 19 18 21 21 24 26 26 25 26 26
16 15 15 15 15 15 16 16 17 18 19 20 21 22 23 24 24 23 24 25 25 26 28 30 29 27 22 23 21 23 22 23 26 26 26 24 24 25
17 16 16 16 16 16 17 18 19 20 21 22 22 23 24 25 24 25 25 26 26 26 27 29 30 31 28 22 24 25 26 26 27 27 27 24 21 24
18 17 18 18 18 18 19 20 21 22 23 24 25 25 25 25 25 25 26 27 26 27 28 29 31 31 30 27 25 24 29 28 28 29 29 29 24 22
19 20 20 21 21 21 22 22 23 25 26 27 27 27 27 27 27 27 27 27 28 28 28 30 32 33 32 31 29 24 30 33 32 30 30 31 30 26
22 23 23 24 24 24 25 25 25 28 29 29 30 32 31 30 28 28 27 28 29 29 28 30 32 34 34 34 33 28 27 31 34 36 33 34 33 30
25 25 26 26 27 28 28 28 30 31 31 33 37 36 34 32 29 28 28 28 29 30 30 31 32 32 33 34 33 31 27 28 32 34 35 36 37 35
28 28 28 28 29 30 30 31 30 34 37 39 38 35 32 30 29 28 28 29 30 31 31 31 31 32 31 32 33 32 31 29 29 31 31 33 34 35

GFSNE_700_spd_093.txt.gz
Wind_Speed
36 34 34 34 33 29 27 26 28 31 31 27 26 24 25 24 21 22 20 19 20 20 19 18 19 22 24 26 27 29 31 29 28 29 27 22 20 21
33 33 30 30 29 27 28 28 30 31 31 29 24 24 22 20 18 16 14 14 15 15 16 16 19 20 22 24 25 26 27 28 26 24 23 25 25 24
31 31 31 29 29 29 29 30 31 30 29 26 24 21 18 14 11 11 14 14 14 15 15 16 18 19 20 22 23 24 24 25 25 25 26 28 29 30
32 32 33 32 31 31 31 30 28 27 25 23 20 16 11 11 12 13 15 15 16 16 16 17 19 19 20 22 24 24 25 26 27 29 32 33 31 31
34 33 32 33 32 31 29 26 24 23 21 17 12 12 11 12 13 15 16 17 17 17 17 19 19 19 21 22 24 26 28 31 32 32 32 28 21 18
33 33 31 30 29 27 24 22 21 20 14 11 12 12 12 14 15 17 17 17 17 17 18 18 19 19 19 20 21 23 25 26 26 24 21 18 19 20
31 29 27 26 25 23 21 20 16 13 12 12 13 13 14 15 16 17 17 16 16 18 18 17 18 17 17 18 20 22 24 24 23 23 22 22 22 22
27 25 24 23 22 20 18 16 13 13 12 14 14 14 14 15 16 16 16 16 15 19 17 16 18 18 18 19 21 23 24 25 25 25 26 26 26 26
23 22 21 21 18 17 15 14 14 13 14 15 14 14 14 15 15 15 14 15 17 17 18 18 18 18 20 21 23 25 26 27 27 27 28 29 29 29
22 20 20 18 16 15 14 13 13 14 15 14 14 14 15 15 14 14 15 17 18 19 19 19 20 20 21 23 24 27 28 29 29 29 30 29 29 28
20 18 17 16 15 14 14 14 14 15 14 14 14 14 15 14 14 16 17 19 20 20 21 21 21 22 23 25 26 27 28 29 29 29 28 27 27 27
18 17 17 16 14 14 15 15 14 14 14 14 14 15 15 15 16 18 20 21 21 20 21 21 22 23 25 25 27 30 30 30 28 27 25 24 24 24
19 18 17 16 14 16 16 15 14 14 14 14 15 15 16 17 18 20 21 22 22 22 21 22 22 24 25 26 27 29 30 29 27 24 23 21 21 22
19 18 17 16 16 16 15 15 15 14 14 15 15 16 17 19 20 22 22 23 23 23 22 22 23 25 26 26 26 28 30 29 27 24 22 20 19 20
19 18 18 17 16 16 15 15 15 15 15 15 16 17 19 20 21 23 23 23 23 24 23 24 25 26 26 27 26 26 30 27 26 27 25 24 24 24
19 19 19 17 16 15 15 15 15 15 16 16 17 18 19 20 22 23 23 23 24 25 25 25 26 27 27 27 26 26 29 28 26 28 28 26 26 28
20 20 19 17 16 16 16 16 16 16 16 17 18 19 20 22 23 24 24 24 24 25 27 27 27 28 27 27 25 27 28 29 31 29 30 29 27 28
21 20 19 18 17 17 17 17 17 17 17 18 19 21 22 23 24 25 26 25 25 26 27 28 29 30 29 27 27 26 28 31 32 32 33 32 27 27
21 20 20 19 19 19 20 20 19 19 20 21 21 23 24 25 26 27 27 27 27 26 27 29 30 31 31 30 28 26 26 31 35 34 34 34 31 27
22 22 22 22 21 22 22 22 22 22 23 23 24 26 27 28 31 32 29 29 28 27 27 29 30 31 32 32 30 24 30 28 31 33 34 35 33 29
24 24 24 25 25 24 25 25 25 26 26 27 28 28 30 33 36 33 30 29 28 27 27 28 30 31 32 33 31 27 27 30 29 29 32 35 34 31
27 27 27 27 27 27 27 27 28 29 29 29 31 30 35 35 34 31 29 28 28 27 27 28 30 31 32 33 31 30 27 28 29 28 29 33 34 32
29 29 30 30 29 29 29 29 30 30 31 31 32 34 36 36 33 29 27 27 27 27 28 28 29 31 32 32 32 31 28 26 27 27 25 30 31 31

GFSNE_700_spd_099.txt.gz
Wind_Speed
37 37 33 33 34 33 32 32 31 35 36 31 26 24 27 27 25 24 23 20 18 15 12 12 12 12 12 13 16 17 19 19 19 20 19 18 18 18
33 31 30 30 30 29 30 31 29 29 36 32 29 27 26 26 23 23 19 17 15 12 11 12 11 11 12 13 15 15 16 16 16 17 18 19 19 19
32 31 30 30 29 29 31 30 31 30 38 33 31 28 26 23 22 21 16 13 13 12 13 13 13 12 13 14 14 15 15 15 16 17 19 20 21 21
34 33 32 31 31 31 31 32 32 32 31 33 30 28 24 21 21 18 13 14 13 13 14 14 14 13 14 15 15 15 15 15 15 17 18 21 22 22
34 33 34 34 33 33 32 31 33 32 31 31 29 26 22 20 17 14 13 14 14 14 15 15 14 14 14 15 15 15 15 15 15 17 19 21 22 21
34 33 32 33 33 32 32 32 30 32 30 28 25 23 21 16 15 14 14 14 14 15 15 14 14 13 14 14 15 15 16 15 16 18 20 22 23 23
33 33 33 32 32 31 31 30 30 29 26 24 22 21 17 15 15 15 15 15 14 15 14 14 12 13 14 14 16 16 16 16 17 19 21 22 23 24
34 33 32 32 31 30 29 28 27 25 23 21 19 17 16 16 15 16 14 14 14 14 12 12 12 14 15 16 16 16 16 17 18 20 21 21 23 25
32 32 31 29 28 28 26 25 23 22 20 20 18 17 17 16 17 15 14 14 15 13 12 12 13 14 15 17 17 17 17 18 18 19 20 21 23 25
30 29 28 28 27 25 24 22 22 21 19 19 18 17 17 16 16 14 14 14 14 13 13 14 15 15 16 18 19 18 19 19 19 20 20 22 24 25
28 27 25 25 22 23 22 21 20 19 19 18 17 17 17 15 15 15 14 14 15 14 14 15 17 17 17 18 19 20 20 20 21 21 22 23 24 25
26 24 24 23 22 22 20 20 18 19 18 17 16 17 16 14 14 15 15 15 15 15 15 16 18 18 18 19 20 21 21 22 22 23 23 24 25 25
24 24 21 21 20 20 19 19 19 18 17 16 17 16 15 15 15 15 15 16 15 16 17 17 19 19 19 21 22 22 23 23 23 24 24 25 24 25
21 22 20 21 20 20 20 20 19 18 17 17 17 15 15 15 14 15 16 16 16 16 17 18 18 19 20 21 23 23 24 24 24 25 25 25 24 25
21 20 20 21 21 21 21 20 18 18 17 17 16 15 15 14 15 15 15 15 16 16 17 18 19 19 20 21 22 24 26 27 26 26 25 25 25 26
22 22 22 22 22 21 21 19 19 19 17 16 15 16 16 15 15 15 14 15 16 17 18 19 20 21 22 22 21 24 25 25 27 28 26 26 27 28
23 23 21 23 23 22 21 20 20 18 16 16 16 17 16 16 15 16 16 16 18 20 22 24 25 24 23 23 22 24 25 26 26 27 26 25 27 29
23 21 21 21 21 21 21 21 20 18 17 17 18 18 18 18 17 18 17 18 20 22 26 28 27 25 23 23 23 23 25 26 27 27 28 25 24 28
19 19 21 23 23 22 22 21 20 20 19 18 20 19 20 20 21 21 21 21 22 24 28 28 27 25 22 21 22 24 25 27 27 27 29 29 26 25
17 19 22 22 22 22 21 21 22 22 21 21 21 21 22 23 24 24 25 25 27 28 29 29 26 23 22 21 20 24 26 27 27 26 27 28 26 23
18 21 23 22 23 26 25 25 24 24 23 22 22 24 26 27 26 27 27 28 29 30 30 30 27 24 23 22 20 21 25 28 29 27 28 27 23 19
21 23 25 27 28 28 28 27 26 25 25 23 25 29 30 29 28 29 29 31 31 31 31 31 29 27 25 23 21 21 23 26 29 29 30 30 25 19
27 26 27 27 28 28 28 27 27 27 27 27 30 32 32 31 31 31 35 33 32 33 33 31 29 28 27 25 24 22 23 25 26 26 28 32 29 26

GFSNE_700_spd_105.txt.gz
Wind_Speed
20 21 23 25 27 28 30 31 32 37 36 36 37 35 30 29 32 29 27 27 27 25 23 21 19 14 12 12 13 20 26 30 32 26 19 17 14 11
25 26 27 28 30 30 30 31 31 32 36 37 34 33 32 30 30 33 29 27 27 24 23 20 17 14 12 11 12 15 18 20 21 18 18 14 11 10
29 29 29 30 32 33 32 32 32 32 35 37 34 35 33 31 34 33 28 27 26 23 22 19 16 14 13 12 13 14 14 16 16 16 15 13 11 11
32 34 33 33 33 34 35 34 34 35 37 36 34 32 35 33 33 31 30 28 25 23 20 19 16 15 15 14 15 15 15 15 15 14 14 13 12 11
36 38 38 37 35 34 35 36 35 36 36 35 37 34 34 30 35 35 28 27 24 22 19 18 16 16 16 15 16 15 14 14 15 14 14 14 13 13
38 38 37 37 36 36 33 36 36 34 34 34 35 35 34 38 29 30 27 24 22 20 18 17 17 17 17 16 15 14 14 14 14 14 14 15 14 14
36 37 36 36 35 35 35 34 36 35 34 35 33 31 34 32 30 28 26 23 19 19 18 18 17 17 16 15 16 14 14 14 15 15 15 15 15 15
36 37 37 37 37 36 35 34 34 35 34 33 32 30 30 29 27 25 23 20 19 19 18 18 17 16 15 15 15 14 14 15 15 16 16 16 16 16
39 39 38 38 37 37 35 35 34 33 33 32 30 27 28 27 24 22 20 20 19 19 19 17 17 16 14 15 15 15 15 15 16 16 17 18 18 18
41 39 39 38 36 36 34 33 33 33 31 30 28 27 25 22 21 20 19 19 18 19 18 17 17 16 15 16 17 16 16 16 17 17 18 19 19 20
42 40 38 37 35 34 32 32 32 29 28 29 25 24 23 20 20 19 19 18 19 19 18 17 17 16 17 17 17 18 17 18 18 19 19 21 21 21
39 39 36 34 33 31 30 29 30 29 25 25 23 22 22 20 20 20 18 19 19 18 17 17 17 17 17 18 18 19 19 20 20 20 21 22 22 22
37 34 30 28 28 27 28 26 27 25 22 23 21 21 22 20 19 19 19 19 18 17 18 18 18 18 18 19 20 20 20 21 22 22 23 23 23 23
34 30 26 23 25 25 25 25 24 23 22 21 20 21 22 19 19 20 19 18 18 18 18 19 18 18 19 21 20 20 22 23 23 24 24 24 24 24
30 25 23 22 23 23 23 23 21 21 22 21 21 22 20 18 18 19 17 18 18 17 18 19 18 18 20 21 20 21 23 24 24 25 25 26 25 24
29 24 23 23 23 22 20 21 20 20 20 20 20 19 20 21 19 20 19 19 18 17 18 18 17 18 19 21 23 25 27 26 26 26 25 26 25 25
26 24 22 22 22 23 21 19 20 20 20 20 20 21 21 19 19 20 19 18 17 17 17 18 18 18 19 21 24 26 26 26 27 25 25 26 27 26
24 23 21 21 21 24 22 19 20 20 20 22 22 20 18 22 21 21 19 16 17 19 19 20 20 20 21 23 25 27 26 27 27 26 25 23 26 28
22 21 20 20 21 21 17 19 20 22 23 24 26 23 23 23 22 20 18 19 20 22 22 23 23 23 24 25 27 27 27 27 26 25 25 24 23 27
21 20 20 20 21 21 26 28 25 24 25 24 21 23 25 24 22 22 23 23 22 25 25 24 24 26 26 26 27 31 30 28 26 26 26 25 24 25
21 20 20 20 21 23 22 23 25 25 23 26 27 26 26 26 25 25 26 23 26 25 25 26 30 28 28 30 31 33 32 30 29 27 27 27 26 24
21 20 20 20 23 23 25 26 25 26 26 25 24 27 27 27 27 28 27 27 31 36 30 30 33 31 32 33 35 33 30 33 32 29 28 28 26 24
23 22 21 21 24 25 23 24 28 26 24 25 27 28 29 29 29 30 30 31 32 31 28 34 34 36 35 37 37 33 31 31 32 31 30 29 27 25

GFSNE_700_spd_108.txt.gz
Wind_Speed
19 21 22 22 23 25 26 25 27 31 31 31 28 28 27 32 32 32 31 30 26 28 26 25 22 19 15 15 15 16 17 26 27 30 31 22 17 14
27 27 26 26 26 27 28 29 29 30 33 33 30 31 32 33 28 30 35 31 31 28 26 25 22 19 16 15 16 20 23 24 28 29 26 19 17 13
28 25 25 26 26 28 29 31 32 31 31 32 34 31 33 23 32 36 31 35 28 29 26 24 21 19 17 15 15 16 21 23 24 24 23 19 15 14
30 32 33 34 35 34 34 33 33 34 34 34 35 37 34 32 31 32 35 29 29 28 26 23 21 19 17 16 16 17 17 18 19 18 18 17 15 15
31 32 34 34 35 35 33 33 34 33 34 34 37 36 35 32 35 29 29 29 33 29 25 23 21 19 17 16 16 17 17 17 17 17 17 16 15 15
32 33 34 34 34 34 33 33 33 33 33 33 35 35 33 31 32 35 30 33 29 27 23 21 20 18 18 17 17 17 17 16 16 15 15 16 16 16
32 33 34 34 35 35 35 34 34 34 33 34 33 36 35 35 29 31 34 33 28 25 22 20 20 18 18 18 17 17 16 15 14 14 15 16 16 16
33 35 36 37 37 38 37 36 35 35 34 33 34 34 32 31 31 33 30 26 25 22 21 20 19 18 18 17 18 17 15 15 14 14 15 16 17 17
36 37 39 39 39 40 39 37 35 34 33 32 32 30 31 30 28 26 26 25 23 21 20 20 19 18 18 17 18 16 15 15 14 15 17 17 18 18
37 38 39 39 39 39 38 36 34 33 32 31 30 29 27 27 26 24 25 23 19 19 18 18 18 18 17 17 17 15 15 15 15 16 18 18 18 18
34 35 36 37 38 38 37 34 32 31 29 30 27 27 25 25 23 24 21 21 20 19 19 18 17 18 17 17 17 15 16 16 17 18 18 19 19 19
34 34 36 36 36 36 33 30 28 28 27 27 26 24 24 22 21 22 21 20 19 19 18 17 18 18 18 18 17 16 17 17 18 18 19 20 20 20
32 34 34 36 35 33 27 25 24 24 24 24 24 22 22 22 21 20 20 19 19 18 18 17 17 19 18 17 17 17 17 17 18 18 20 21 21 22
32 32 33 33 32 30 23 23 22 22 22 22 22 20 21 21 21 19 18 19 18 18 17 17 18 19 18 18 18 17 17 17 18 20 21 22 22 24
29 32 31 31 27 24 22 23 21 21 21 21 21 22 21 18 20 19 19 20 20 18 17 17 19 19 18 17 16 16 16 16 19 22 23 24 25 26
27 28 29 28 24 23 23 22 22 20 19 20 21 20 19 20 20 18 19 19 17 19 18 18 19 18 17 16 15 15 15 17 20 23 23 24 26 26
26 25 26 25 23 21 22 21 22 22 20 20 20 20 20 20 16 21 22 19 21 19 18 19 17 16 17 16 15 16 17 19 21 22 22 23 25 25
24 23 25 23 22 21 21 21 22 23 22 19 19 19 20 19 22 24 20 20 20 19 18 16 17 18 16 18 19 20 21 23 23 22 22 21 24 25
23 23 23 23 21 20 20 20 22 23 20 20 21 19 19 24 21 18 18 18 20 20 21 23 18 19 21 24 23 24 24 24 25 25 23 22 21 27
23 22 23 22 22 21 20 20 21 21 21 21 20 23 23 23 22 22 22 24 24 24 28 24 21 22 26 24 25 27 27 27 29 27 25 23 22 24
25 23 23 22 22 21 21 21 21 24 28 28 26 24 25 26 24 26 24 27 28 24 23 20 24 26 24 25 26 30 30 29 31 29 27 25 24 24
26 25 23 22 22 21 21 22 22 23 21 23 23 23 29 30 29 28 27 28 29 27 24 28 30 28 31 30 28 29 33 34 35 32 28 27 25 24
25 24 24 22 22 22 22 22 23 20 26 24 25 32 27 24 25 26 28 29 31 31 30 31 32 35 28 28 30 32 34 35 40 37 30 29 26 24

GFSNE_700_spd_114.txt.gz
Wind_Speed
20 19 19 20 20 21 21 22 25 26 27 26 26 24 25 24 24 26 25 31 31 24 27 23 22 23 25 23 22 21 22 22 25 28 22 22 26 21
17 17 16 17 18 19 20 22 24 28 33 30 31 31 31 33 29 27 32 33 34 28 27 26 26 28 27 25 25 21 20 22 25 28 23 25 25 29
14 16 18 19 20 22 23 24 27 30 32 33 32 32 32 31 30 29 28 25 26 26 29 26 27 31 27 27 25 22 21 21 23 28 34 33 29 34
17 19 20 22 23 24 26 27 28 30 32 32 32 32 32 31 31 31 30 26 24 24 28 34 33 29 25 24 24 22 23 26 26 32 33 36 37 34
21 22 22 23 24 24 25 25 26 27 30 31 32 32 31 30 31 32 32 30 23 27 30 32 30 27 27 26 24 21 23 27 32 31 41 40 38 31
23 23 24 24 23 24 26 27 28 29 31 32 33 33 32 31 31 32 30 32 28 24 30 31 34 34 29 26 26 23 23 25 28 32 32 32 32 27
24 24 25 24 24 26 27 28 30 32 32 34 34 34 33 32 31 30 26 29 32 33 35 33 30 32 31 28 26 22 23 24 26 27 27 28 26 24
25 26 26 25 25 28 28 29 30 30 31 31 32 33 32 31 31 32 30 32 35 31 31 30 30 30 28 27 25 23 23 23 24 25 25 25 25 23
27 27 27 29 29 29 29 29 29 30 31 32 32 33 33 31 30 30 30 31 31 31 27 25 29 28 26 23 22 22 24 22 23 23 23 23 23 20
27 27 29 30 29 28 28 28 30 30 31 31 30 30 30 30 29 29 29 30 29 26 25 26 25 24 23 21 19 21 22 22 21 21 22 21 21 20
27 29 29 29 28 26 27 28 30 31 31 31 30 29 28 27 27 27 27 28 26 24 25 23 22 21 20 20 20 22 22 21 21 21 20 21 20 20
29 29 28 28 27 26 27 28 29 31 32 30 29 28 25 24 26 27 26 25 26 23 24 21 20 19 19 19 19 19 20 20 20 20 20 20 20 21
29 27 27 28 28 27 25 27 28 30 30 29 28 26 24 23 24 25 24 24 23 22 20 19 18 19 19 19 16 17 19 20 20 20 20 21 21 22
27 28 27 29 29 28 27 27 28 29 28 26 26 22 21 22 23 23 23 22 20 20 25 19 20 20 19 22 21 23 19 21 21 20 21 21 21 22
25 26 29 29 30 29 27 27 28 27 26 25 23 20 19 19 21 22 21 20 20 21 19 19 19 19 20 20 20 20 19 22 21 20 20 20 20 21
26 27 28 28 28 27 26 27 26 25 23 23 21 20 18 17 17 19 20 21 19 20 22 20 19 19 19 19 18 17 21 20 20 19 18 17 18 21
29 27 28 28 26 25 26 26 24 22 22 21 20 20 19 19 18 20 19 20 19 19 22 23 23 19 20 22 19 21 21 19 18 16 17 16 18 20
29 27 26 26 25 24 24 24 23 22 21 20 20 20 19 18 18 19 18 19 20 21 21 18 19 20 21 20 19 21 21 23 27 28 22 17 20 19
28 24 25 26 25 25 24 23 22 22 21 20 19 20 20 20 19 18 19 19 20 21 20 21 24 21 21 25 26 26 26 28 30 25 18 19 22 21
29 24 24 25 25 24 24 24 23 21 21 19 19 19 18 18 18 19 20 21 23 22 22 18 20 24 26 30 30 30 29 30 28 22 20 22 23 24
32 29 25 26 27 27 26 25 24 22 21 20 19 19 19 19 19 18 19 20 19 18 20 21 26 29 27 28 28 29 29 27 26 26 30 29 28 25
31 28 29 29 28 28 26 24 24 23 23 22 21 20 20 23 23 25 25 24 23 23 23 26 28 29 27 26 30 30 21 21 22 26 29 28 27 30
29 30 31 28 28 27 27 25 23 24 23 23 23 22 21 21 21 23 26 27 27 25 27 29 34 34 28 29 31 30 24 25 27 25 23 26 25 25

GFSNE_700_spd_117.txt.gz
Wind_Speed
21 23 23 21 21 21 21 21 23 22 20 21 23 21 25 27 27 29 30 28 26 28 31 25 20 26 26 23 21 20 26 25 21 25 23 21 23 20
23 24 23 21 18 18 20 21 23 26 28 25 28 27 26 28 29 30 29 31 32 30 27 28 28 23 28 22 21 23 24 21 19 20 23 21 25 20
22 19 18 18 19 21 22 24 25 28 31 30 28 29 28 29 28 29 30 31 31 30 29 26 25 24 23 26 26 27 25 22 17 20 19 24 24 24
20 19 19 20 21 23 25 26 27 28 30 30 30 29 29 29 29 28 28 28 30 31 30 25 25 26 27 25 23 22 22 21 19 22 24 29 30 37
21 21 21 22 24 24 26 27 27 28 29 31 31 31 31 31 31 30 30 30 29 30 31 26 28 29 28 23 25 24 21 22 24 27 33 32 29 33
22 23 23 24 25 26 26 27 28 28 29 31 33 34 34 34 34 33 32 32 32 29 32 28 30 27 29 31 30 30 17 21 26 28 34 31 31 30
25 25 25 25 25 26 27 28 29 30 31 31 32 32 33 33 35 34 33 32 31 26 24 29 33 33 34 26 29 27 22 23 23 26 26 35 32 32
26 27 25 25 26 27 28 30 32 33 33 33 31 32 34 35 37 36 34 33 32 30 33 34 34 31 29 23 24 25 22 24 22 25 25 27 25 23
28 27 26 26 27 28 30 32 33 33 33 33 32 33 35 34 36 35 34 33 32 31 33 32 30 28 25 23 23 23 23 23 21 24 23 23 22 22
27 27 27 27 27 28 31 31 33 31 32 32 32 32 33 33 32 32 33 32 30 29 29 28 25 25 25 25 23 20 21 21 22 21 22 22 20 20
27 27 28 28 29 29 31 32 33 32 32 32 32 33 32 32 31 30 29 28 28 27 26 26 23 23 23 23 20 19 19 18 20 20 20 19 18 20
27 27 28 31 32 31 31 31 31 32 31 31 31 30 31 30 29 27 26 26 26 26 24 24 21 23 23 20 18 18 18 19 20 19 19 16 18 20
27 28 30 32 34 34 31 31 31 31 31 31 30 28 28 28 26 24 24 24 26 25 23 23 20 20 19 18 19 18 18 16 17 18 19 20 21 19
28 30 31 33 34 35 34 32 32 32 31 31 29 25 26 25 24 23 22 23 23 23 21 21 19 19 18 19 19 18 18 16 14 18 19 20 20 19
28 32 33 34 36 33 32 30 30 29 30 29 28 25 24 24 23 22 21 21 20 20 20 19 21 23 20 19 19 21 20 19 20 17 19 20 21 21
30 33 33 32 32 30 28 27 27 27 27 27 26 23 22 22 21 20 18 18 17 18 19 20 20 20 18 18 19 19 20 18 19 21 23 21 20 20
33 32 29 28 29 27 25 26 26 26 24 25 24 22 22 22 22 20 19 18 18 17 17 19 21 21 19 18 18 19 19 18 18 19 21 20 18 17
33 32 31 28 28 27 26 26 26 25 23 23 23 23 22 21 21 20 18 18 18 17 17 17 20 22 22 22 18 20 20 19 20 22 22 21 22 22
37 35 32 28 28 27 26 26 25 24 24 23 23 23 23 21 20 19 20 19 18 19 19 22 23 20 18 16 19 21 21 21 24 28 29 31 32 29
36 34 34 32 30 29 28 27 26 25 25 25 23 22 22 20 19 18 18 19 19 19 18 20 21 22 23 23 24 26 26 27 28 29 33 30 24 23
37 37 36 34 33 32 29 28 28 27 26 25 25 24 22 20 19 19 19 19 20 20 20 21 24 25 22 21 24 25 28 30 28 28 28 27 27 28
36 35 34 33 33 32 31 30 27 27 26 25 25 24 23 21 20 20 21 21 20 19 20 21 21 22 24 25 27 29 32 32 30 29 24 22 24 26
28 29 31 30 29 30 31 30 29 27 27 25 24 24 24 23 22 21 21 22 25 27 26 27 27 28 24 25 27 28 30 32 31 28 25 22 22 23

GFSNE_700_spd_120.txt.gz
Wind_Speed
23 22 22 22 21 22 24 24 21 19 17 19 19 19 22 23 25 27 27 28 28 27 28 29 27 25 27 25 25 26 25 17 18 23 20 23 24 24
24 24 22 23 24 25 24 22 22 23 22 22 24 24 25 25 27 27 27 28 28 29 30 29 29 28 23 25 30 25 23 19 20 18 16 19 20 22
25 23 22 24 24 24 23 23 23 26 27 24 25 26 27 27 26 27 27 27 28 29 29 30 31 30 27 25 24 23 21 24 19 20 15 18 21 24
24 23 23 23 25 25 24 24 25 28 28 28 27 27 29 30 29 27 28 27 28 29 29 29 29 31 28 24 24 24 20 20 17 11 21 19 26 22
24 25 24 26 26 25 25 26 26 28 29 29 30 29 29 30 31 31 30 30 30 30 30 29 29 28 26 26 29 27 26 22 21 18 22 26 24 34
25 25 25 26 26 27 27 27 27 28 29 30 31 32 31 31 32 32 31 31 31 30 31 31 24 29 25 29 29 32 31 21 20 23 20 22 28 34
27 26 27 28 28 28 28 29 28 28 29 30 32 33 33 33 34 34 33 33 34 33 31 30 25 21 25 31 36 30 26 25 23 20 19 21 31 34
29 30 30 30 29 28 28 29 29 29 29 30 32 33 33 33 34 35 35 34 33 32 32 29 24 24 30 37 35 29 23 21 22 21 22 21 25 33
33 33 32 31 30 29 29 29 29 29 30 32 31 32 33 33 34 35 35 34 33 33 32 31 30 29 32 34 32 25 21 20 22 22 18 18 23 23
34 34 33 31 29 30 29 29 29 29 30 31 30 31 32 34 35 35 34 33 31 30 30 30 29 29 30 28 25 23 22 21 20 22 20 21 22 20
35 34 32 30 31 30 30 30 29 30 30 31 30 31 31 33 34 35 33 31 30 27 27 28 27 26 25 24 22 21 20 19 19 20 22 20 20 17
34 33 32 31 31 30 30 30 30 31 30 30 30 30 32 33 34 33 31 30 28 26 24 26 26 25 23 21 20 20 19 18 17 19 19 19 18 17
33 31 30 30 30 30 30 30 31 32 31 32 31 32 32 32 33 32 31 28 26 25 23 23 24 23 21 20 18 18 19 18 18 18 18 18 18 16
31 30 30 31 30 30 31 31 34 33 32 32 33 31 31 31 31 30 28 26 25 24 21 22 23 22 20 18 17 18 18 19 18 17 16 16 18 17
32 31 30 30 30 32 32 30 31 31 30 32 31 30 30 30 28 27 26 24 23 21 20 19 21 21 20 18 17 19 19 18 18 19 17 17 17 18
34 34 31 29 30 32 31 29 29 29 28 28 29 29 29 28 25 25 24 23 21 19 17 17 18 18 20 19 17 19 19 18 18 21 20 17 15 17
37 35 34 31 30 32 29 29 29 28 27 27 28 26 26 25 24 23 22 20 20 20 19 19 20 20 19 21 17 16 17 19 20 20 21 19 20 19
40 39 37 36 33 32 30 30 29 28 27 27 27 26 25 25 24 23 21 19 19 19 18 20 20 20 20 20 19 16 16 19 19 20 19 18 18 19
44 40 39 36 36 34 32 31 28 27 26 26 27 26 25 24 23 21 20 19 19 20 19 20 21 21 20 19 20 20 18 20 20 20 20 19 21 24
29 30 31 35 37 37 35 32 30 29 27 27 27 26 26 25 22 21 19 19 18 17 17 18 19 22 23 21 18 18 17 19 20 22 24 22 26 28
32 33 35 37 37 38 38 34 31 31 29 28 27 26 26 24 22 21 20 20 19 18 18 20 21 19 19 20 21 21 23 23 24 26 28 25 24 26
32 35 38 38 36 34 34 31 31 30 30 28 27 26 24 23 21 22 21 20 21 20 19 19 19 19 20 22 22 24 24 25 27 27 29 28 26 25
32 34 36 36 32 32 31 30 29 28 30 29 28 26 25 22 21 22 22 21 21 21 23 23 21 19 19 19 21 25 28 27 26 29 27 29 30 28

GFSNE_700_spd_123.txt.gz
Wind_Speed
21 28 26 27 25 25 22 22 21 21 20 19 21 21 20 22 24 27 27 28 28 27 25 27 27 27 22 24 21 21 23 28 23 21 18 22 24 26
30 31 38 29 27 26 23 24 24 22 22 22 23 24 24 25 26 26 26 27 28 28 29 27 27 26 27 25 26 25 24 25 18 23 23 24 26 30
33 40 36 31 27 26 24 25 24 24 24 26 25 26 26 26 26 27 26 28 29 29 29 29 27 27 27 27 27 26 24 21 17 17 23 24 19 24
44 45 37 30 28 26 24 25 26 26 26 25 26 26 27 28 27 27 29 30 30 31 31 31 29 28 28 27 26 28 22 24 21 13 12 18 17 14
47 33 33 29 27 25 25 27 27 29 28 28 27 27 28 28 29 30 30 30 31 30 30 30 29 28 27 27 24 23 19 27 26 14 14 25 16 31
52 58 30 29 25 26 26 27 29 30 30 30 29 29 29 30 31 31 31 32 31 31 30 32 31 28 28 25 24 20 23 30 31 27 17 23 33 30
28 27 27 26 25 26 27 29 30 30 31 31 31 31 31 32 33 33 32 32 32 32 31 32 31 28 26 22 21 27 30 28 23 22 24 25 28 33
28 27 28 27 28 28 29 30 31 31 31 31 31 32 32 32 32 33 33 33 32 33 32 32 32 29 22 23 24 27 32 30 21 20 22 26 28 28
27 28 28 29 30 31 32 32 33 31 31 31 31 32 32 32 32 33 33 33 32 32 31 32 29 27 26 27 30 31 32 26 18 18 22 25 26 26
29 31 32 34 34 34 34 34 33 32 32 31 31 32 32 32 31 32 33 33 32 31 31 32 29 26 26 27 27 28 26 21 20 21 23 23 22 23
31 36 35 33 35 36 36 35 33 32 32 32 32 32 32 31 31 32 32 32 32 30 30 31 27 25 24 24 25 25 21 19 19 20 20 21 23 20
31 33 35 36 37 37 35 33 33 33 32 33 32 31 31 31 32 32 30 31 31 31 30 29 27 25 25 24 23 21 20 19 19 18 18 20 22 21
33 35 36 37 37 35 34 32 32 33 33 32 32 32 32 31 31 30 29 30 29 30 29 28 24 22 24 23 19 18 19 17 17 17 18 19 20 20
36 37 38 36 35 34 33 32 33 33 33 33 32 31 30 30 29 28 28 28 27 28 26 27 23 23 23 22 19 17 16 16 16 18 19 20 20 20
38 39 39 37 36 34 33 33 32 31 30 29 28 28 29 29 28 28 28 27 26 26 25 24 22 21 22 21 19 17 16 16 17 17 19 20 19 20
40 39 40 39 38 36 34 33 31 28 27 26 28 27 27 28 28 27 26 26 25 25 25 23 21 19 19 18 17 20 23 19 18 18 19 20 21 18
42 44 44 42 40 38 36 35 32 29 27 27 27 27 27 28 26 25 25 25 25 25 26 24 21 20 20 19 19 18 17 18 18 19 19 22 21 22
47 48 47 46 46 42 39 37 34 31 30 28 26 27 27 27 27 25 26 25 25 26 26 24 22 21 19 19 19 19 17 17 17 18 19 21 23 23
44 45 46 47 47 42 38 36 36 33 31 29 28 28 28 27 26 25 25 25 25 25 25 24 23 21 20 20 19 18 19 19 19 18 20 21 21 21
32 37 38 37 37 36 33 32 36 35 32 31 30 30 29 28 27 25 26 26 26 25 23 23 22 22 21 21 20 19 19 23 24 20 20 21 23 22
28 27 26 27 29 29 31 33 36 36 34 33 31 30 30 29 26 25 27 27 26 24 23 23 23 20 20 18 19 23 22 23 21 21 23 24 25 26
39 36 32 30 30 32 33 35 35 33 30 29 29 29 30 29 26 26 26 27 26 24 24 24 23 21 21 20 21 23 25 26 26 24 23 23 25 27
35 34 35 32 32 34 35 36 34 31 29 27 27 28 29 29 28 26 25 26 26 25 24 26 26 23 20 20 21 24 25 27 26 24 24 28 31 31

GFSNE_700_spd_126.txt.gz
Wind_Speed
32 28 26 23 24 27 22 21 23 23 20 20 20 21 20 21 22 24 25 25 24 24 24 25 26 25 25 25 23 24 25 23 21 23 24 23 22 28
34 34 29 32 35 37 27 26 27 25 24 22 22 22 23 23 24 25 25 26 26 26 26 26 26 26 27 29 27 25 25 24 23 21 21 22 25 24
37 37 34 35 41 39 33 31 30 27 26 23 24 25 25 25 26 26 26 26 26 28 28 28 27 27 27 27 28 28 27 25 21 20 20 18 15 15
42 43 41 42 44 42 37 30 33 27 24 24 26 26 28 27 27 27 27 27 29 30 29 29 28 28 28 29 29 27 27 25 23 22 18 18 15 12
47 45 44 42 50 38 39 34 29 27 26 27 27 28 29 29 28 29 28 28 29 28 27 27 28 29 28 28 28 28 27 23 23 22 16 8 22 13
51 46 42 42 50 52 43 33 28 28 27 27 27 28 29 30 29 29 29 28 29 28 28 28 28 28 28 28 27 27 23 22 19 25 26 20 22 21
52 44 43 47 55 49 37 27 26 28 28 28 28 28 29 30 30 30 29 28 29 29 29 29 28 28 27 25 26 27 24 19 28 32 25 22 28 32
52 54 52 50 31 32 24 25 27 27 27 28 29 29 30 30 30 30 30 29 29 29 30 29 28 27 25 25 25 22 21 25 25 32 24 21 24 29
50 56 53 34 28 26 26 27 29 29 29 30 31 31 31 31 31 31 30 31 30 30 29 28 27 27 26 25 24 24 28 31 34 30 21 21 23 24
33 30 35 30 23 25 27 31 32 32 32 32 32 33 33 32 32 32 32 32 31 31 30 27 25 25 25 24 24 24 26 27 25 22 20 21 23 24
24 23 24 26 32 32 33 37 31 33 35 34 33 33 33 33 33 32 33 33 33 32 30 27 26 24 24 22 23 23 25 24 21 20 20 22 23 23
29 28 31 29 31 41 36 31 33 36 36 34 34 33 33 32 32 34 33 33 33 31 28 27 24 24 23 20 21 21 22 21 20 20 20 20 20 20
26 28 29 29 31 30 31 35 37 36 35 33 33 32 33 33 33 34 34 33 31 29 27 26 24 24 24 22 19 21 20 19 18 19 19 19 19 19
34 36 37 34 34 36 37 38 38 36 35 33 32 33 33 35 35 34 33 31 29 27 26 25 24 23 22 21 20 20 19 18 18 18 18 19 18 20
37 36 36 32 35 39 37 39 37 35 34 32 32 32 33 33 33 32 30 28 26 25 25 24 26 22 22 19 20 20 18 18 17 17 18 19 21 22
40 37 37 38 41 42 43 41 39 37 36 34 33 32 31 31 30 29 27 26 24 24 24 24 24 23 21 19 18 18 18 18 18 17 18 20 21 22
40 41 43 45 45 46 44 44 45 42 39 37 35 33 31 30 29 26 25 25 23 24 24 24 24 23 21 20 19 19 21 19 21 22 21 21 22 23
38 42 44 45 47 48 49 48 47 45 44 42 39 35 31 30 28 25 24 24 23 24 25 24 23 22 21 20 20 21 21 20 20 19 21 21 21 22
38 38 37 39 41 42 44 46 46 44 41 40 38 34 32 30 28 26 25 24 25 24 23 23 23 22 20 23 23 22 21 21 21 19 19 19 21 24
36 38 37 34 35 37 37 37 38 38 38 36 34 32 30 29 28 26 26 25 24 25 24 23 23 22 21 21 19 19 20 20 21 23 21 23 24 22
35 36 38 38 35 32 32 32 31 32 32 31 30 31 31 30 29 27 27 26 25 24 24 26 24 21 22 20 19 23 24 23 23 23 23 25 21 20
35 34 34 34 37 35 30 28 31 33 31 28 26 25 27 27 27 26 26 26 24 23 24 26 24 23 22 21 22 24 24 25 27 26 25 24 23 24
31 33 34 32 30 32 33 33 29 30 31 28 26 27 27 26 25 26 26 25 25 24 23 26 26 24 24 23 23 23 24 25 25 28 28 28 26 24

GFSNE_700_spd_129.txt.gz
Wind_Speed
38 36 34 33 31 30 27 21 22 23 28 28 29 27 24 21 21 21 23 23 23 21 21 21 21 21 20 20 21 21 21 23 23 21 20 21 18 19
41 38 37 36 35 32 30 29 32 33 44 36 30 30 26 23 22 24 23 23 23 22 21 22 21 20 21 22 22 23 22 22 23 22 21 21 19 20
43 40 39 39 37 39 41 39 38 38 42 37 31 32 29 26 25 24 24 22 24 25 23 23 23 22 22 23 23 24 25 25 24 22 21 19 16 10
42 39 43 41 43 42 44 43 42 40 48 37 32 32 31 29 27 26 24 24 25 25 25 24 23 23 23 24 25 24 25 24 25 24 22 20 17 12
44 45 44 45 47 47 47 48 47 48 52 37 33 33 32 29 27 25 25 26 26 26 26 26 26 25 25 26 26 26 26 26 25 24 21 12 7 13
50 45 47 49 51 50 51 48 47 46 47 51 39 32 30 28 27 25 26 26 27 26 26 26 26 25 25 26 26 26 26 25 26 23 21 14 13 19
56 46 49 51 53 58 52 50 48 53 49 50 27 27 28 29 27 26 27 27 28 28 27 27 27 25 25 26 26 26 26 26 26 26 21 24 17 25
57 51 49 55 60 61 62 39 48 49 43 24 22 26 28 28 28 28 28 28 28 28 27 27 26 26 26 26 26 26 26 26 25 20 23 27 21 24
49 50 52 57 52 53 63 52 50 50 29 27 23 28 29 29 29 29 29 29 28 29 27 27 28 27 26 26 27 26 25 25 23 26 30 32 25 24
46 50 57 51 49 49 62 49 38 30 28 26 28 28 29 29 29 29 29 29 29 29 28 26 28 27 28 27 26 26 25 24 24 25 28 26 24 23
35 38 44 48 44 35 36 35 31 32 29 28 32 29 30 30 30 30 30 29 28 28 29 28 27 27 27 27 26 25 25 24 25 24 25 24 22 23
25 30 28 30 35 32 35 35 35 34 29 37 30 28 30 30 29 29 29 29 29 29 29 29 28 28 27 25 24 23 22 21 21 22 22 21 21 22
33 32 32 36 35 36 32 35 33 34 34 25 26 29 30 30 29 29 29 30 29 30 30 30 28 29 28 25 23 22 21 20 22 22 21 19 20 21
41 36 31 35 36 39 40 34 33 37 31 30 29 32 30 30 29 29 29 30 30 30 29 30 28 28 27 25 22 20 21 21 21 21 19 19 19 19
36 40 40 39 36 38 34 35 34 35 34 33 32 36 32 31 30 30 29 29 28 28 29 29 28 27 25 23 22 20 21 22 21 21 20 19 19 18
37 39 42 43 39 40 44 41 40 41 39 37 39 38 34 32 32 30 29 28 27 28 29 29 28 26 24 23 22 20 21 21 19 22 21 19 19 19
33 34 35 37 38 39 40 42 42 42 44 42 41 39 39 36 33 30 29 27 27 28 28 28 27 26 24 23 22 22 23 22 21 20 21 20 19 21
36 33 33 36 37 36 38 40 41 42 43 43 42 40 39 39 37 34 31 29 27 26 28 28 27 26 23 23 21 22 22 21 21 21 20 20 22 24
40 39 36 33 33 34 35 38 40 41 41 41 41 42 40 39 37 34 32 30 28 28 28 28 26 25 23 22 23 22 22 21 21 19 21 21 22 23
36 37 37 38 36 34 34 35 35 38 40 39 38 38 38 38 37 34 31 31 31 28 28 28 27 25 24 22 22 21 22 21 21 22 22 22 22 19
33 34 34 34 36 37 36 35 33 33 35 37 36 36 36 36 34 32 30 31 31 28 27 29 28 24 24 23 22 24 23 21 21 21 20 21 23 21
32 32 31 32 33 34 33 33 33 32 30 32 32 31 30 29 29 30 30 30 30 28 27 30 26 25 25 23 24 24 23 21 20 22 22 22 22 22
28 27 28 30 32 32 31 30 29 29 31 27 31 33 30 27 25 24 25 27 29 28 27 29 26 24 23 25 24 23 23 21 21 22 24 27 27 25

GFSNE_700_spd_132.txt.gz
Wind_Speed
45 43 41 39 36 34 32 29 30 27 22 24 26 28 29 30 29 27 28 25 24 22 21 20 20 21 19 19 19 18 17 17 17 18 18 19 18 18
49 47 45 42 39 36 35 31 33 32 32 31 31 34 33 34 32 30 29 27 25 23 21 21 21 22 21 21 21 20 19 18 17 18 18 19 19 19
50 49 47 44 41 39 39 35 37 38 35 42 43 43 38 38 41 35 30 29 28 25 23 22 23 22 21 21 21 21 21 19 18 18 18 18 18 19
49 50 47 46 42 42 42 37 38 44 47 43 44 43 47 39 41 35 33 30 29 27 24 24 23 22 22 22 23 22 22 21 19 19 19 18 17 17
47 48 47 45 47 43 44 44 44 52 48 48 51 48 44 52 46 37 35 33 29 27 26 24 22 22 22 23 23 22 22 23 20 20 18 19 18 16
44 44 45 50 50 48 48 46 50 52 45 52 51 55 52 45 47 46 36 31 29 28 26 24 23 22 23 24 23 23 23 22 21 21 20 19 17 18
41 46 50 51 53 61 60 57 56 58 53 55 57 61 51 47 42 28 30 30 28 27 25 25 23 24 24 24 24 23 22 22 22 21 21 21 21 21
45 44 50 55 53 53 55 58 68 53 56 59 58 56 52 43 32 25 27 28 29 26 25 24 25 25 25 24 24 23 23 22 24 23 23 24 21 21
50 51 57 60 56 57 61 62 60 57 63 64 49 54 37 31 28 27 27 28 29 29 27 26 26 26 26 25 25 24 23 24 23 25 25 24 21 25
50 49 53 58 64 65 59 56 56 57 54 53 50 42 44 37 32 27 26 29 30 28 28 27 27 26 25 24 24 24 25 25 25 25 26 26 28 28
27 34 42 46 46 46 53 53 55 53 57 57 44 45 39 35 33 26 23 28 29 28 27 27 26 26 24 24 24 26 26 26 27 27 26 26 28 27
30 35 29 24 35 39 44 41 45 47 50 43 38 37 36 32 36 26 20 24 27 27 28 27 26 26 25 25 25 25 26 26 25 27 26 26 26 25
28 29 37 44 37 27 27 33 35 38 39 40 40 37 36 31 27 20 20 22 27 28 28 28 26 27 26 24 24 24 25 25 25 25 25 24 22 23
32 34 35 35 35 38 39 42 48 41 36 37 35 36 38 38 29 25 26 23 24 28 29 28 26 26 26 24 23 24 25 24 24 25 25 23 22 22
35 36 36 35 36 35 31 30 32 36 37 34 32 39 34 33 23 27 29 25 25 27 27 27 27 26 26 25 23 24 24 24 23 24 23 22 23 21
34 34 34 34 34 34 33 32 32 33 35 36 36 38 37 36 33 34 35 30 29 27 27 30 29 28 26 26 24 24 26 26 24 23 21 21 23 22
37 35 33 31 31 32 31 32 33 33 33 33 35 36 38 38 36 37 38 35 31 29 30 29 29 28 27 26 25 25 27 26 26 22 20 19 22 22
35 36 36 34 32 32 33 34 34 34 34 34 34 36 38 39 38 36 37 37 35 34 32 32 30 28 27 26 26 27 27 25 24 22 19 18 20 22
34 32 33 33 33 32 31 32 33 33 33 34 35 36 38 41 41 39 39 37 35 37 34 32 29 28 27 26 28 26 26 24 23 21 20 19 22 24
33 31 30 31 32 32 31 31 31 33 33 32 33 34 36 37 40 42 41 39 36 35 36 33 30 28 28 27 26 25 28 25 24 22 21 21 23 25
31 29 29 29 30 31 30 30 31 31 33 34 34 32 33 35 36 37 38 37 36 35 34 32 32 30 27 26 26 29 27 24 22 21 20 21 24 23
30 29 28 28 27 28 28 29 28 30 30 30 31 31 31 32 32 33 33 34 34 31 31 33 32 29 26 26 27 27 25 22 23 22 21 22 24 23
25 24 23 23 25 26 27 27 28 27 28 27 27 28 29 29 28 26 26 26 28 31 32 32 31 28 25 25 25 24 24 23 22 22 23 24 25 24